GFSNE_925_spd_000.txt.gz
Wind_Speed
24 21 21 23 26 25 24 22 16 13 14 22 22 22 23 27 28 30 30 29 34 34 38 39 39 39 40 39 39 39 37 40 39 41 43 42 40 41
23 20 24 26 26 25 24 24 22 19 14 27 26 26 28 28 30 31 29 30 31 37 38 41 45 44 41 43 43 40 42 44 45 44 43 45 42 40
22 22 22 26 23 25 23 24 23 21 12 32 30 29 29 28 32 28 28 28 28 37 41 46 44 42 42 43 44 45 42 43 43 42 41 41 40 42
25 21 22 23 25 25 24 24 25 28 22 14 32 29 29 31 25 27 29 32 33 35 39 38 41 42 43 42 41 39 35 37 39 39 39 37 37 37
23 18 21 27 25 25 28 27 23 21 22 24 28 31 34 24 25 29 32 34 33 34 35 35 36 37 37 36 33 38 40 38 39 38 38 37 39 39
21 19 21 25 26 27 26 21 24 28 27 26 24 29 21 28 27 29 32 30 34 31 32 33 33 36 35 40 41 40 37 36 37 36 36 35 35 37
25 22 25 25 24 25 26 27 29 28 25 21 25 23 19 26 24 29 29 33 31 22 34 36 27 31 36 36 36 35 34 35 36 34 36 37 37 34
29 27 27 25 24 26 28 31 32 32 31 26 17 18 24 26 29 29 29 13 17 32 22 34 30 34 32 33 35 37 39 40 39 38 38 39 39 36
25 27 27 23 27 29 32 32 32 31 26 27 25 26 28 30 28 29 29 26 23 33 30 28 29 30 33 34 36 37 38 38 39 39 39 39 39 39
25 24 23 26 28 30 33 30 28 26 26 28 27 28 29 33 35 30 29 31 29 30 27 13 29 30 34 34 37 38 37 36 36 36 35 33 31 33
23 23 24 29 29 33 34 24 24 26 30 27 26 30 34 31 31 31 23 20 12 23 29 24 28 28 32 35 37 34 31 33 36 37 38 37 35 32
24 24 26 30 33 29 30 27 27 30 27 26 29 29 29 29 29 27 26 18 13 13 26 19 25 22 9 27 19 28 31 32 33 36 38 36 34 32
24 24 25 29 26 34 31 27 28 32 27 28 27 28 27 26 28 28 28 27 23 20 33 29 23 24 15 10 28 29 30 29 32 35 32 30 31 31
22 24 26 27 30 29 26 27 28 28 26 25 25 25 27 28 29 31 33 34 33 33 39 36 24 23 18 12 13 25 31 33 29 30 29 29 28 28
25 23 23 27 25 25 25 26 27 24 24 23 24 26 27 31 33 31 30 30 30 32 32 31 28 28 23 15 11 21 19 21 29 24 27 24 23 19
24 19 24 23 24 25 24 25 24 24 25 24 25 29 29 28 28 27 27 29 25 27 26 22 25 26 21 19 17 18 22 7 28 29 24 22 17 10
28 21 21 22 24 24 25 25 25 25 24 25 26 27 27 27 27 27 25 25 19 18 20 25 27 26 22 17 9 17 21 23 21 20 16 13 16 18
21 19 20 21 21 23 24 26 26 26 25 27 27 26 25 25 26 26 24 21 17 18 18 21 23 19 12 8 12 18 15 13 21 19 17 9 16 28
17 19 20 21 23 24 25 25 26 27 28 26 27 26 25 25 25 24 23 20 18 16 18 20 17 6 4 4 9 20 18 18 17 18 18 16 11 24
18 20 21 23 24 25 26 26 28 28 27 26 26 26 25 23 23 21 20 18 16 15 15 17 14 11 2 3 3 12 31 23 19 18 18 19 23 28
21 22 23 24 25 26 27 27 27 27 28 28 27 25 25 22 22 21 19 20 19 13 7 10 19 15 15 9 5 7 22 33 35 28 23 11 11 23
22 24 25 26 27 27 28 28 28 28 28 27 27 26 25 23 21 21 17 15 14 14 11 17 18 17 15 8 6 7 16 23 31 38 41 37 18 8
24 26 28 28 28 28 28 28 28 28 28 27 27 26 25 23 24 19 17 15 13 13 14 13 16 15 13 11 10 10 15 19 19 24 32 42 43 43

GFSNE_925_spd_003.txt.gz
Wind_Speed
19 18 15 18 19 22 20 19 14 10 14 16 15 21 22 27 28 27 30 29 33 33 34 37 40 41 43 47 47 47 47 42 41 41 40 41 42 42
20 19 19 18 21 22 23 22 20 18 11 28 26 25 25 25 30 32 31 32 28 30 36 39 45 48 48 49 48 46 44 44 43 43 42 44 44 46
21 20 19 19 21 25 24 22 21 20 13 33 30 28 31 30 30 30 28 22 29 33 38 44 44 40 41 40 41 41 42 43 44 45 46 44 45 45
23 22 20 20 21 23 24 24 24 25 22 15 34 34 31 31 31 30 27 26 29 32 37 38 37 38 36 36 36 37 38 39 37 36 35 38 41 41
22 22 23 21 23 25 27 27 25 20 24 25 29 34 31 30 32 26 31 29 28 32 35 33 31 33 36 41 41 41 38 39 39 38 37 38 39 41
23 23 23 23 25 27 25 25 23 26 27 27 28 24 32 27 25 26 31 29 30 31 30 28 37 38 35 35 38 39 40 40 39 38 38 38 40 42
21 21 22 22 23 25 27 27 30 28 27 21 25 22 21 24 24 27 28 31 27 28 32 34 29 31 34 35 36 36 35 36 37 37 38 39 39 40
26 24 23 22 22 25 29 31 31 33 30 26 18 20 27 27 29 28 26 23 14 29 22 33 32 32 32 32 34 35 37 38 38 39 39 40 41 39
24 25 25 24 27 32 32 32 31 24 26 29 29 27 28 29 28 29 27 24 25 34 28 28 31 32 33 34 36 37 38 38 39 38 38 39 39 40
24 25 26 29 31 30 31 22 29 26 28 30 28 30 29 33 34 30 29 30 29 30 25 13 29 31 34 35 37 38 37 34 34 35 37 38 37 37
27 25 24 26 29 31 29 29 27 28 30 27 27 31 34 31 30 29 22 21 14 24 27 25 28 29 32 36 36 32 31 33 37 38 38 39 38 39
22 21 21 25 30 29 32 28 24 30 28 25 29 30 29 29 27 26 26 19 16 14 21 20 26 23 10 30 24 33 32 33 35 35 36 36 36 35
23 22 23 24 31 32 30 25 27 31 26 28 26 28 27 26 27 27 28 27 25 22 32 29 24 26 16 14 28 29 31 31 32 33 34 33 34 34
23 26 24 29 31 28 26 25 28 27 26 24 25 25 26 28 30 32 33 33 32 33 39 36 25 25 20 12 14 28 32 33 29 31 30 31 33 34
23 27 25 27 25 24 24 25 25 24 23 22 23 26 28 31 33 31 30 29 29 31 31 33 30 29 24 16 12 24 22 23 29 26 28 28 26 25
25 21 24 22 23 23 23 23 22 22 24 23 24 28 29 28 29 28 27 29 25 28 27 25 25 26 24 24 21 20 26 7 27 31 27 24 20 16
27 22 20 21 23 23 24 23 24 24 24 24 25 27 28 28 28 28 25 26 19 20 25 26 28 28 26 25 12 18 21 24 23 23 20 17 15 20
20 18 19 20 21 22 23 26 26 26 25 27 27 26 26 26 27 27 24 21 18 21 21 23 25 24 18 9 11 18 21 17 24 23 21 10 12 26
16 18 19 21 23 24 24 24 25 27 27 25 26 26 25 26 26 25 23 21 20 19 20 22 19 11 8 7 9 19 21 21 23 21 23 20 11 23
17 19 21 23 24 25 25 25 27 28 27 26 26 26 25 23 24 22 21 19 17 17 17 20 18 16 5 4 4 16 32 27 22 22 22 15 22 24
20 21 22 24 25 26 27 27 26 26 27 27 26 25 25 23 23 22 21 23 21 14 8 14 22 21 18 12 7 8 25 31 33 28 29 18 10 23
21 23 25 26 27 28 28 28 28 28 27 26 26 26 25 24 22 22 21 18 16 14 14 19 22 20 14 7 5 7 17 24 29 37 43 40 21 11
24 25 27 29 29 29 28 28 28 29 27 27 27 27 25 24 24 22 20 17 16 14 14 12 18 14 14 9 11 9 16 18 19 22 31 41 42 42

GFSNE_925_spd_006.txt.gz
Wind_Speed
13 14 14 14 14 14 16 16 11 8 13 8 7 25 24 26 26 29 32 32 32 36 38 36 35 37 42 44 46 47 47 48 48 49 47 48 47 47
16 17 17 17 16 17 17 18 19 19 10 25 27 26 26 28 30 31 32 32 34 34 31 33 41 45 48 49 48 45 43 43 43 43 45 46 44 45
18 20 20 20 20 19 19 20 22 23 15 34 31 30 33 33 30 29 29 29 31 27 36 42 42 42 43 44 43 42 40 40 39 40 41 42 43 44
21 21 23 22 23 23 24 25 26 27 23 22 32 33 33 32 33 31 29 27 29 32 35 37 40 42 41 38 37 38 38 40 41 42 40 40 38 40
19 21 22 21 22 23 24 26 26 24 22 25 31 34 35 30 31 28 29 31 30 30 34 35 36 37 37 38 43 42 41 40 40 41 40 39 39 39
21 22 23 22 22 23 23 23 21 25 27 26 27 30 24 23 28 28 29 28 31 30 33 36 35 36 37 37 38 39 40 39 39 40 41 41 41 41
21 20 20 19 19 20 24 27 28 27 26 24 19 18 27 27 25 29 29 32 32 31 33 32 30 31 34 36 36 36 36 35 37 37 38 39 39 40
22 23 23 22 22 23 28 28 29 27 22 26 25 23 23 28 31 28 27 27 15 26 23 34 31 32 32 33 34 34 36 39 39 38 38 39 40 41
23 26 27 26 27 29 32 31 16 25 27 30 28 27 29 30 29 30 29 27 28 34 30 30 31 32 33 34 35 36 37 38 38 39 38 39 39 39
24 26 26 28 27 29 31 24 29 26 27 28 28 31 29 34 33 30 31 32 32 32 26 13 31 32 35 35 37 38 36 35 35 35 35 36 36 37
26 22 23 25 27 31 30 28 26 26 31 27 24 31 33 30 29 29 24 23 14 26 29 24 27 30 34 37 34 28 30 34 36 35 35 36 37 39
20 20 19 24 30 28 31 28 23 30 29 24 31 31 30 30 27 25 26 21 19 13 23 21 28 23 9 27 24 33 30 32 33 34 34 35 36 37
21 20 23 26 29 32 28 25 26 30 26 28 26 28 27 27 28 27 27 27 26 24 35 31 23 27 15 17 27 27 30 31 31 34 33 32 32 34
22 24 26 28 30 27 24 24 27 26 26 24 25 25 26 28 30 32 34 33 31 33 41 38 25 26 22 13 14 25 33 33 28 30 29 31 32 34
24 27 25 27 25 23 23 24 24 23 22 22 23 26 27 31 33 30 31 31 31 32 31 30 30 30 25 19 12 27 25 25 31 27 29 28 29 30
23 22 24 23 21 22 22 23 22 22 23 23 24 28 29 27 28 28 28 30 28 29 27 25 26 27 26 25 21 23 27 8 27 32 30 27 28 28
27 22 20 20 22 22 23 23 23 23 23 24 25 26 27 27 28 27 26 26 20 22 28 31 29 26 25 26 15 18 23 25 27 28 25 21 22 24
19 18 19 20 20 21 23 25 25 25 25 26 26 24 25 26 26 28 24 21 20 22 22 25 28 28 26 12 12 18 20 24 33 29 27 17 13 26
15 17 18 20 22 23 24 24 26 27 27 24 25 26 25 26 25 24 23 21 20 21 22 22 20 15 10 10 12 20 24 27 29 27 29 25 12 28
16 18 20 21 23 24 25 25 28 28 26 25 25 26 25 23 23 22 21 20 19 19 20 21 18 16 9 6 5 20 29 28 27 25 29 24 22 27
19 20 21 23 25 26 27 28 27 27 27 28 27 25 25 23 23 22 21 23 23 16 9 16 22 21 20 15 9 9 26 30 31 28 30 19 12 21
20 22 24 25 27 28 29 28 28 28 27 26 26 26 26 23 22 22 21 19 17 16 16 23 24 20 12 5 6 9 16 26 29 30 39 39 17 9
22 24 26 28 30 30 29 28 28 29 28 28 27 27 26 24 24 22 22 20 15 15 17 15 19 14 12 7 10 9 16 20 19 23 27 36 36 37

GFSNE_925_spd_009.txt.gz
Wind_Speed
10 11 12 13 14 13 13 13 14 11 14 17 7 25 26 26 26 29 28 28 30 32 35 37 39 38 36 37 43 46 48 48 48 49 49 49 49 50
10 12 12 13 14 14 14 15 16 20 12 27 29 29 28 28 28 29 29 30 33 33 34 35 37 40 45 49 48 47 46 46 45 44 44 44 44 44
12 12 14 15 14 15 15 17 19 21 17 35 31 32 32 31 31 29 28 29 31 34 37 42 41 42 42 44 45 44 44 43 42 42 42 41 41 39
14 15 15 15 16 16 15 17 20 23 26 27 33 32 33 33 32 31 28 30 33 33 35 36 39 41 41 41 42 42 42 40 41 42 42 42 41 42
15 15 16 16 16 16 16 19 21 23 24 26 32 33 31 29 28 33 31 32 31 31 33 34 36 37 39 40 41 41 41 40 40 40 40 40 40 40
17 19 16 15 16 18 19 21 21 25 27 27 26 23 28 32 29 30 29 30 30 31 33 34 35 36 37 39 40 40 40 39 39 39 39 40 40 41
18 19 16 18 19 20 22 24 26 25 24 17 22 25 27 27 26 29 29 32 32 31 31 30 31 33 36 37 37 37 36 35 36 37 37 38 39 39
17 17 20 21 20 20 23 25 25 27 22 22 24 23 28 27 30 27 29 28 16 26 23 36 32 34 33 34 35 35 37 38 39 39 38 39 39 40
18 20 20 18 22 21 25 26 23 23 26 27 29 28 28 30 27 31 29 28 28 35 32 31 32 33 32 34 36 37 38 38 38 38 38 39 39 40
20 21 20 21 20 24 28 20 24 25 24 26 27 30 28 31 31 28 30 31 32 32 27 15 33 32 33 35 38 37 35 34 34 34 35 36 37 38
20 20 19 21 23 29 26 26 27 26 28 25 25 27 33 29 25 26 24 22 16 27 30 23 26 31 34 37 31 23 29 33 34 35 35 36 37 38
19 17 17 22 28 26 29 26 24 28 26 24 28 27 24 24 23 20 23 20 19 12 17 21 26 24 9 19 20 33 28 29 30 32 35 36 37 37
20 21 22 25 27 29 27 23 24 28 27 25 24 25 24 23 23 23 23 24 24 22 34 28 22 26 16 20 30 28 30 29 30 32 31 31 33 35
20 22 24 26 28 26 23 22 24 24 21 21 23 24 25 26 27 30 30 29 27 31 39 34 25 26 24 16 14 25 34 32 27 28 28 31 32 34
21 25 25 25 24 21 20 22 22 19 20 22 23 24 24 28 31 28 29 28 28 28 29 28 27 30 26 22 14 29 26 26 30 26 30 30 31 30
22 20 22 21 18 19 19 19 20 20 22 22 23 27 26 26 26 26 26 27 26 27 23 23 25 26 26 26 22 24 27 9 31 33 30 31 29 31
25 18 18 18 19 20 21 22 21 22 22 23 24 25 26 25 27 25 24 25 20 22 25 30 26 25 25 26 20 22 24 27 29 33 32 26 27 26
18 16 17 18 19 20 22 24 24 24 23 24 24 23 24 24 25 27 23 20 20 22 23 26 28 26 24 14 13 18 22 24 31 33 29 22 20 28
13 15 17 19 20 21 22 23 25 25 26 23 24 25 24 24 25 23 23 21 20 20 22 23 21 15 11 11 18 18 18 28 27 28 29 28 16 28
14 16 18 20 21 22 23 24 26 26 24 24 24 25 24 21 22 21 21 20 20 21 21 20 17 16 10 9 8 26 29 25 24 24 25 28 28 21
17 18 19 21 22 23 25 25 25 26 26 27 26 24 24 21 22 22 22 24 23 18 13 17 23 23 23 16 9 12 25 28 29 24 28 22 12 15
18 20 22 23 24 25 26 26 27 27 26 25 26 25 24 22 21 22 21 19 19 18 18 21 24 21 10 7 9 11 17 28 30 24 29 33 18 7
20 22 24 26 27 27 27 26 26 28 27 27 26 26 25 23 23 21 20 19 19 17 17 18 20 16 13 7 13 12 17 22 23 25 24 32 31 31

GFSNE_925_spd_012.txt.gz
Wind_Speed
6 8 9 11 13 14 16 17 18 14 13 17 12 20 24 25 27 28 29 30 31 34 34 36 36 36 39 39 41 42 43 43 45 46 48 48 48 48
7 9 11 12 14 15 16 18 19 22 14 22 25 26 26 27 28 28 29 31 33 34 36 36 37 40 39 41 40 41 42 43 43 45 46 46 46 48
8 9 12 13 15 16 17 18 19 21 17 28 28 28 29 29 30 28 29 31 35 36 37 37 37 38 38 39 40 41 42 42 43 43 44 44 44 44
10 11 13 14 16 16 16 18 19 21 25 27 30 30 30 29 29 31 33 34 32 33 35 36 37 38 37 38 39 40 40 41 41 42 43 42 42 43
11 13 15 15 16 16 17 19 21 23 26 28 31 31 30 25 31 34 29 30 29 31 33 34 36 38 37 37 38 40 42 42 41 41 42 42 42 43
13 14 16 15 16 18 20 22 23 25 28 28 29 29 25 30 32 29 27 29 30 30 36 34 33 35 34 37 41 41 41 40 39 40 41 40 41 41
15 16 16 16 18 19 21 23 26 26 26 26 21 25 27 28 27 28 28 29 33 30 32 31 29 35 36 36 36 36 35 36 38 38 38 39 40 40
16 17 18 19 18 20 22 23 26 28 28 23 24 25 30 29 28 27 28 27 14 28 25 37 32 36 34 34 35 36 38 39 39 39 39 39 41 42
16 18 19 19 20 22 22 26 27 25 25 32 29 29 30 29 31 30 30 29 27 34 33 33 32 33 34 35 36 37 38 38 37 37 38 39 41 42
16 19 20 20 20 22 27 26 21 27 26 25 28 31 31 31 30 33 30 32 33 31 28 14 32 31 33 36 38 35 32 31 32 34 35 37 38 39
17 19 19 20 20 26 26 26 29 27 25 24 27 29 31 33 28 26 25 22 16 27 29 25 26 30 35 38 27 21 26 36 35 33 34 35 37 39
19 19 19 19 24 25 27 28 27 26 27 29 28 27 24 23 22 20 22 21 20 13 17 20 27 23 9 21 19 36 30 30 30 31 32 33 35 37
21 21 21 22 25 27 26 25 23 28 28 26 24 23 22 21 21 21 22 23 24 23 33 27 23 26 17 21 32 30 33 29 30 33 30 31 31 33
21 21 23 25 27 26 23 20 23 24 21 21 22 23 23 24 24 26 29 29 28 32 39 34 26 26 24 16 15 29 32 33 28 30 32 34 35 36
20 23 26 24 24 20 18 21 19 17 19 20 22 23 24 27 29 26 27 27 28 28 30 31 29 30 27 24 19 31 30 33 33 29 32 34 33 35
22 24 22 21 18 19 18 17 17 18 20 21 22 24 26 25 26 25 25 26 25 28 26 25 25 28 29 29 28 27 31 14 32 33 35 38 34 32
25 21 18 17 17 17 18 18 20 20 20 21 22 24 24 24 26 25 24 25 21 23 26 27 26 26 28 30 25 27 27 28 31 33 35 32 32 29
19 16 16 16 17 18 20 22 22 22 21 23 23 22 23 24 25 26 23 21 21 22 23 27 28 27 24 22 19 20 26 27 33 33 30 24 26 32
13 14 15 16 17 19 20 22 24 25 24 22 23 24 24 24 24 24 23 22 21 22 23 25 23 18 11 13 28 21 23 30 31 28 25 24 24 31
12 14 16 17 18 20 22 23 26 26 24 23 24 24 23 22 23 22 22 21 21 23 23 22 21 19 11 13 14 34 33 26 26 25 24 29 25 25
15 16 17 18 19 21 23 25 25 26 26 26 25 24 23 22 23 23 23 25 25 20 14 19 25 28 26 23 13 17 28 30 28 25 26 20 12 12
16 18 18 19 20 23 25 25 25 26 25 24 24 25 24 23 22 23 23 21 21 20 22 24 26 24 20 15 12 16 25 29 27 26 22 24 15 6
18 19 19 20 23 24 25 25 25 26 26 25 26 26 26 25 25 23 23 21 20 20 20 22 22 21 19 18 19 16 22 23 24 24 22 28 25 25

GFSNE_925_spd_015.txt.gz
Wind_Speed
6 8 9 10 11 13 14 15 15 10 10 16 20 13 23 23 24 27 29 30 30 33 35 35 36 37 37 37 38 39 39 39 39 39 40 42 42 43
7 9 10 11 13 14 16 16 18 19 12 20 22 23 25 25 27 28 29 30 30 34 38 37 37 37 37 38 38 38 38 39 39 40 40 40 40 41
9 10 11 12 14 15 16 17 18 19 14 24 24 24 26 28 27 27 27 32 34 36 37 34 35 36 36 37 37 37 39 39 40 40 41 40 41 41
11 11 13 14 15 16 16 17 19 21 23 22 25 26 24 28 28 28 27 31 36 31 32 35 36 36 37 38 37 38 38 39 40 40 41 42 41 42
12 13 14 15 17 16 17 19 20 22 23 25 26 26 29 27 25 28 34 27 27 30 34 36 36 39 37 36 36 37 38 40 41 41 40 41 42 42
14 15 15 16 17 17 19 21 22 23 24 25 26 29 27 21 27 27 25 26 29 29 34 37 33 35 35 36 40 40 39 38 38 38 38 38 39 41
15 16 16 16 16 19 20 20 23 23 24 25 26 26 24 26 24 24 26 28 35 27 32 36 26 35 37 36 37 37 35 35 37 37 38 39 39 39
16 16 17 17 17 18 21 21 23 26 26 27 23 23 28 25 25 25 29 26 12 29 20 41 31 35 35 34 34 36 37 36 36 37 37 37 39 40
15 16 17 17 19 19 20 22 25 28 25 32 30 24 26 28 30 31 27 27 28 35 31 37 32 34 34 36 34 35 38 37 34 33 32 34 36 37
15 16 17 18 19 20 22 25 24 28 27 25 25 27 29 32 31 27 30 31 34 32 25 18 33 35 34 34 40 35 30 28 27 31 36 37 37 37
16 17 18 18 19 22 25 25 26 26 26 26 27 32 33 31 29 26 25 22 17 28 27 27 27 30 35 39 30 23 24 32 35 32 33 33 34 35
17 18 18 19 20 24 25 26 26 26 26 29 30 29 26 26 24 23 23 20 21 19 23 19 25 22 7 23 21 35 31 32 31 34 31 34 36 35
18 18 20 21 24 27 27 26 25 26 28 27 26 25 24 24 22 24 27 25 25 28 35 29 24 27 18 23 29 32 35 35 31 36 36 35 33 33
18 19 21 25 28 26 25 22 23 25 23 22 22 24 24 26 26 27 31 33 32 35 41 35 27 27 26 19 16 33 36 36 32 33 35 35 36 38
19 22 26 27 24 22 20 22 20 19 19 20 21 24 25 28 32 30 29 29 31 32 33 33 31 31 29 26 22 32 31 37 38 33 32 33 35 36
21 23 25 22 19 19 19 18 18 19 21 20 23 25 27 28 28 26 27 29 27 31 30 27 28 28 28 29 29 30 33 20 33 34 34 36 37 34
26 22 19 17 18 18 18 18 19 20 21 22 23 25 26 25 27 27 26 26 23 25 29 31 29 30 32 32 28 31 29 30 31 34 34 33 36 31
19 16 15 16 17 18 19 21 22 23 23 24 26 24 24 25 27 28 26 23 22 24 25 28 30 28 28 25 23 25 28 29 31 33 33 26 29 33
13 14 15 16 17 18 19 21 24 25 26 24 24 26 26 26 27 26 25 24 24 24 26 28 25 20 13 14 32 19 23 31 32 29 28 27 24 34
13 15 16 17 18 19 21 23 25 26 25 25 26 26 26 24 25 25 24 23 23 25 25 25 23 21 12 14 16 40 34 29 28 27 27 30 29 29
14 15 16 18 19 20 23 24 25 26 27 27 27 26 26 24 25 25 26 29 28 23 18 21 27 30 30 29 14 20 32 33 30 28 28 24 12 16
16 17 18 19 21 22 24 25 26 26 26 25 26 27 27 26 25 26 26 24 24 23 24 26 29 27 21 17 12 17 27 32 31 29 27 21 15 6
17 18 20 22 23 24 25 25 26 27 27 27 27 28 28 28 29 27 27 26 25 22 22 24 26 23 21 19 21 18 24 24 24 26 27 26 24 22

GFSNE_925_spd_021.txt.gz
Wind_Speed
3 3 5 5 5 6 6 7 4 3 4 4 6 18 27 27 25 25 28 28 26 31 30 28 31 32 32 31 30 32 32 32 32 33 34 34 35 34
3 5 7 8 9 10 11 10 10 12 4 11 21 26 27 26 27 26 30 32 29 28 29 30 33 31 29 31 32 33 33 34 34 34 35 35 35 34
4 6 8 8 11 11 9 11 13 15 10 17 20 22 25 31 30 33 32 30 29 28 30 31 29 31 33 32 33 34 35 35 34 34 34 34 34 34
5 7 9 10 10 11 14 14 13 13 18 19 20 23 25 29 31 33 30 27 29 30 26 31 33 31 34 33 32 33 34 34 33 32 33 34 35 35
5 7 9 10 13 14 13 13 14 19 20 24 23 24 26 30 30 27 27 28 28 26 32 31 32 31 30 31 32 33 33 34 33 33 33 34 34 34
6 7 9 10 11 11 12 16 18 19 21 23 21 23 24 27 22 26 25 25 31 31 32 31 27 30 31 31 32 31 31 31 30 30 31 32 32 32
7 8 8 9 12 14 16 15 17 20 20 18 17 20 20 23 22 24 27 30 32 31 31 27 27 33 33 30 30 30 28 31 33 34 33 32 31 31
9 10 11 13 15 12 15 17 18 20 19 17 19 20 23 23 24 25 28 27 12 25 19 29 30 31 31 31 30 32 35 34 32 34 35 33 31 30
10 12 13 14 12 16 15 17 19 19 19 24 24 23 24 26 31 29 24 22 25 32 29 29 30 31 31 31 32 35 35 33 31 28 28 27 27 28
9 10 13 14 14 14 19 20 19 21 21 22 24 28 28 27 26 26 28 27 28 30 27 21 29 33 34 31 34 33 29 27 27 27 29 32 32 31
10 12 13 15 17 18 20 23 25 21 25 23 22 23 25 28 25 25 23 21 20 27 31 24 22 27 31 35 28 24 24 26 32 31 29 29 31 32
13 14 14 15 18 18 21 23 20 25 27 25 23 30 28 27 22 21 25 21 22 17 17 11 24 22 9 23 19 30 33 28 29 32 32 31 30 31
15 17 17 17 19 22 22 21 21 24 19 22 27 25 25 25 25 27 26 24 25 24 37 26 22 26 19 22 22 27 33 35 31 33 32 31 30 27
17 18 19 20 22 22 19 19 20 20 24 23 21 22 23 28 30 30 33 30 31 34 39 34 24 28 27 23 19 27 30 34 32 32 31 32 29 30
16 18 18 19 19 16 17 19 17 21 22 19 20 24 25 29 33 30 33 32 33 36 35 32 32 32 29 27 25 32 31 32 35 31 28 28 31 32
19 13 16 16 15 18 17 18 19 19 19 20 23 26 27 26 28 27 27 28 28 32 35 30 28 30 30 30 29 31 34 20 29 32 31 32 34 32
17 17 17 18 19 17 17 18 20 20 20 22 22 24 25 25 27 28 26 27 23 27 31 34 33 30 31 33 30 33 32 31 32 33 29 30 34 31
13 15 16 17 18 17 17 20 22 22 23 24 24 24 24 26 27 28 26 25 24 27 27 31 30 29 28 26 29 33 34 30 33 32 30 26 30 32
13 14 15 18 20 20 20 22 24 26 27 23 24 26 27 26 27 27 26 25 25 26 29 29 26 21 12 14 27 21 24 29 31 32 29 28 27 34
13 14 17 20 20 21 24 25 26 26 24 24 25 26 27 25 26 25 25 25 25 26 27 28 25 23 13 16 18 38 27 25 25 26 27 29 31 35
15 16 21 22 23 24 25 27 26 25 25 27 29 26 27 25 26 26 26 29 30 24 21 24 30 34 34 31 16 21 32 29 27 28 29 24 19 22
16 21 23 23 24 24 26 26 27 26 27 28 28 28 28 26 25 26 26 25 26 25 27 30 30 29 25 19 12 21 28 33 35 30 29 28 20 8
20 22 24 24 25 25 26 26 26 28 28 29 29 30 29 27 28 27 27 26 26 25 25 27 28 26 23 21 23 21 27 29 28 28 32 32 28 31

GFSNE_925_spd_024.txt.gz
Wind_Speed
8 6 5 5 5 5 6 6 5 2 3 4 5 6 26 26 25 23 25 27 27 27 26 26 26 27 28 31 29 29 29 30 32 32 33 34 34 35
7 6 6 5 6 7 8 9 9 9 3 5 15 25 26 26 27 25 28 24 25 23 25 26 27 27 27 28 30 31 31 31 32 33 33 34 35 35
6 6 6 7 8 10 10 10 12 13 9 13 18 25 25 27 29 31 29 28 27 26 24 26 26 26 30 29 29 30 31 32 32 33 33 33 34 34
6 6 6 8 10 11 11 13 14 14 17 15 19 24 25 28 30 30 28 30 28 26 25 27 28 28 28 29 27 28 29 31 32 33 33 34 35 36
5 6 6 9 11 12 13 14 15 16 18 21 20 23 26 29 29 28 28 28 27 26 28 27 29 28 26 26 28 29 30 31 31 32 32 32 33 34
4 6 7 9 10 10 10 13 16 16 16 21 21 21 23 26 24 26 25 25 28 28 31 27 27 25 28 31 29 29 30 29 30 29 30 31 32 33
5 5 6 7 9 11 14 13 13 17 20 22 18 18 19 22 22 24 24 28 29 31 29 24 26 29 35 31 30 30 29 27 30 33 34 34 33 33
4 4 6 8 9 11 12 14 15 19 19 16 17 16 22 23 25 23 25 24 10 23 15 30 29 29 33 33 31 30 32 33 32 33 32 32 32 32
4 5 6 6 8 11 12 13 16 17 18 22 22 23 25 28 30 29 23 21 26 31 30 30 28 30 33 32 31 33 34 33 31 29 30 30 29 29
4 6 8 10 11 13 16 18 17 19 20 19 24 28 28 25 23 24 27 28 29 29 27 21 26 29 31 31 34 33 32 29 27 27 28 31 33 33
5 8 10 12 12 15 17 19 21 21 21 22 21 21 22 25 27 25 24 21 22 26 26 24 17 24 28 33 28 24 25 26 29 34 34 32 31 31
9 11 12 12 15 15 19 19 18 21 23 19 21 28 28 27 22 19 23 21 21 16 8 8 21 20 9 19 21 25 34 32 32 32 32 32 31 31
14 17 16 14 15 18 18 19 18 20 17 23 27 28 28 26 25 25 25 24 24 24 33 25 21 25 18 18 19 26 32 36 35 33 31 31 30 29
15 16 15 15 17 18 16 15 18 18 21 22 21 21 22 29 30 29 31 30 29 34 39 33 21 25 26 24 19 28 29 32 32 34 31 31 28 27
14 15 15 15 15 14 16 15 14 17 19 19 19 23 24 29 31 32 31 32 32 34 34 32 31 32 29 28 26 33 31 29 33 33 31 31 33 30
16 9 9 12 12 14 15 15 15 16 16 19 22 25 25 25 27 27 27 27 27 32 31 28 27 30 30 30 29 31 34 19 30 32 31 31 32 30
9 14 16 15 18 18 18 18 19 20 20 22 21 21 23 24 26 26 25 26 23 27 33 34 30 28 31 32 30 33 31 30 31 30 27 31 32 31
11 12 13 15 17 17 16 20 22 22 23 23 22 22 23 25 27 27 24 23 24 27 28 31 30 29 28 26 29 34 34 30 34 31 29 26 31 30
9 11 13 16 19 19 20 22 24 25 25 22 23 25 26 25 25 26 25 24 25 26 28 30 27 22 12 14 28 23 26 28 32 30 28 27 27 35
11 12 15 18 18 20 22 23 25 26 24 24 24 25 26 24 24 24 25 24 25 27 28 27 24 22 13 16 19 39 28 25 25 27 29 30 33 37
15 15 18 18 19 20 22 23 23 25 21 25 26 26 28 25 25 25 25 28 28 25 23 26 31 34 34 32 17 23 35 30 27 29 29 24 21 24
15 18 19 20 20 21 22 23 25 25 26 25 27 28 28 27 26 27 26 26 26 26 28 30 31 31 27 21 12 24 27 34 36 31 28 27 21 7
16 18 21 21 21 22 23 24 25 27 26 27 28 29 30 28 29 28 28 28 27 25 25 29 30 27 25 24 25 23 29 31 28 27 33 31 28 31

GFSNE_925_spd_027.txt.gz
Wind_Speed
12 10 8 7 8 8 8 8 6 2 3 3 4 6 13 24 24 22 22 26 23 22 24 24 24 26 27 27 28 28 28 29 30 31 32 32 31 31
12 10 10 8 9 9 8 8 10 9 3 8 8 22 24 25 25 23 26 27 24 22 25 25 25 25 26 27 27 29 31 31 31 31 32 31 32 33
10 8 7 8 10 11 9 9 10 11 8 10 18 21 22 24 26 28 28 27 29 26 24 25 25 26 28 28 29 29 30 30 29 30 31 31 33 33
7 7 11 8 10 12 11 11 12 13 14 14 18 21 23 23 26 28 29 30 28 28 26 25 27 28 28 28 28 28 28 28 29 30 31 32 34 34
9 11 10 9 13 12 12 12 12 13 16 17 17 21 23 25 29 30 27 28 27 28 27 26 26 26 25 25 27 29 30 29 29 30 32 32 33 34
6 6 8 11 12 11 9 9 11 14 15 18 22 23 22 24 24 24 24 26 28 32 31 25 23 22 28 30 29 29 29 29 29 30 30 31 32 32
6 6 9 9 7 8 10 11 10 12 17 20 20 20 19 18 20 25 25 26 26 31 26 23 24 30 35 32 32 30 28 28 28 29 31 33 34 34
6 6 7 7 7 9 9 9 12 17 17 16 18 14 17 21 24 22 24 21 10 20 20 31 27 32 35 35 32 29 31 32 32 32 33 34 34 32
4 4 4 6 8 9 9 10 13 16 17 19 21 22 23 26 31 29 24 21 24 29 28 32 25 32 34 33 31 32 33 33 32 32 32 31 32 31
2 3 6 8 9 10 13 15 14 15 18 19 22 26 27 26 25 24 24 28 28 26 21 20 24 28 33 32 35 32 29 29 29 29 29 30 31 32
3 5 7 10 11 13 15 16 16 19 20 22 20 21 22 25 26 25 26 20 19 22 23 22 19 26 29 34 23 24 24 27 30 32 33 34 34 34
5 8 11 10 12 12 16 18 17 22 23 20 20 27 27 25 21 19 21 22 17 15 8 8 20 16 10 19 19 26 35 32 32 32 32 32 32 32
10 13 13 10 12 14 16 18 18 19 20 21 27 26 26 25 24 25 23 22 20 22 32 24 20 24 17 19 21 26 31 36 36 36 34 32 30 28
11 12 13 14 14 16 15 16 17 17 19 21 21 21 23 30 30 29 28 27 27 31 37 32 21 24 26 25 21 30 30 32 33 37 35 35 29 26
13 14 14 12 14 15 16 15 14 15 17 18 18 23 26 29 28 30 31 31 31 32 31 31 31 32 28 28 27 33 32 29 35 33 31 32 34 32
16 10 8 12 12 14 15 14 14 15 15 18 22 25 26 24 26 26 29 29 27 32 28 27 26 29 31 30 30 33 33 20 29 31 31 31 32 30
10 12 15 15 17 18 18 17 16 18 19 21 22 20 22 23 25 28 26 26 21 27 32 34 28 27 31 33 30 34 32 31 32 31 27 31 33 31
11 12 13 14 17 18 18 20 21 20 22 23 23 21 22 24 26 26 23 21 23 25 27 31 30 30 27 26 28 34 35 32 35 32 29 27 31 28
8 10 12 15 19 18 19 20 23 24 23 23 21 25 25 26 23 26 25 22 24 25 28 29 26 22 12 13 31 24 27 30 30 31 30 27 28 34
9 11 13 17 18 19 21 22 24 25 25 22 24 25 26 25 25 24 23 24 24 27 29 28 24 22 13 16 19 41 29 25 25 28 30 31 35 37
12 13 15 17 18 20 21 22 23 24 21 23 24 25 26 25 25 25 25 27 27 25 23 26 32 32 32 31 17 25 35 32 28 29 30 26 24 26
13 15 16 17 19 20 21 22 24 25 25 24 25 26 28 27 26 27 26 26 27 26 30 33 31 29 27 21 14 25 29 34 38 32 30 29 23 7
14 16 18 19 20 21 21 23 24 25 25 25 27 28 30 28 29 28 29 29 29 28 28 28 30 27 26 25 26 23 29 31 31 32 34 28 27 30

GFSNE_925_spd_030.txt.gz
Wind_Speed
18 18 14 11 9 8 10 9 7 3 2 4 5 6 7 16 21 20 19 21 20 21 22 22 24 25 24 25 26 27 28 28 28 30 31 31 30 31
22 20 15 9 7 7 5 7 9 8 3 7 6 12 19 22 22 21 22 24 25 23 23 23 23 23 24 25 26 28 28 29 30 30 30 30 30 31
17 15 10 9 9 6 7 7 9 9 8 9 13 17 20 22 23 23 24 26 28 26 24 24 22 23 24 26 26 27 28 30 30 30 30 30 29 30
13 8 9 11 8 7 7 11 10 10 11 11 18 19 21 21 22 24 25 27 28 27 24 23 24 24 25 24 24 26 27 28 29 30 31 32 31 32
8 9 4 11 6 5 9 11 11 11 12 13 16 19 20 21 24 25 27 29 28 27 25 24 21 21 22 22 24 27 29 30 31 31 31 32 33 34
9 5 5 8 5 8 10 8 9 11 13 16 19 21 21 22 22 23 22 24 27 29 28 20 20 21 25 28 30 29 29 29 30 31 31 33 34 34
5 4 5 6 5 5 7 8 10 12 13 17 19 19 19 19 18 23 25 25 26 27 22 24 26 33 36 33 30 28 26 25 27 28 30 32 33 33
4 5 5 5 5 6 7 8 9 13 16 14 18 16 18 22 23 23 22 18 10 20 18 28 28 33 34 32 29 26 28 30 30 30 31 33 33 34
3 8 4 2 5 6 8 9 10 12 13 16 17 21 22 25 27 27 23 19 21 29 29 29 23 31 33 33 30 30 31 31 29 28 28 28 30 31
6 2 1 4 7 7 10 12 13 13 14 18 20 23 23 21 21 20 25 26 24 28 22 16 26 27 34 33 35 29 26 27 27 28 28 29 30 31
2 3 4 7 9 10 12 13 13 15 17 18 17 17 18 21 23 22 25 20 17 21 20 21 21 26 28 32 17 23 23 25 29 33 33 32 31 31
2 5 8 8 9 10 12 12 12 19 18 18 18 23 23 21 19 17 18 20 16 13 5 7 23 18 9 21 20 27 35 33 31 31 32 33 31 31
5 8 8 7 9 11 12 15 16 17 17 18 23 23 23 22 23 23 20 19 18 20 28 21 18 23 18 19 22 25 31 36 36 36 33 30 28 26
8 9 9 9 9 11 13 13 14 14 17 18 19 21 23 27 27 25 24 24 24 28 33 29 18 23 24 25 22 27 27 32 33 35 33 33 28 26
8 9 8 7 10 13 12 11 11 12 14 16 18 22 24 25 24 27 27 27 28 30 27 24 27 30 27 27 27 35 30 31 32 32 30 32 35 32
8 4 7 10 11 11 12 11 10 11 12 16 20 24 24 23 26 25 28 29 28 31 25 22 20 24 30 30 29 33 34 19 30 31 32 32 31 31
7 9 11 11 14 15 16 14 15 15 16 19 21 22 22 24 27 27 27 26 18 24 32 33 27 25 28 33 30 33 33 32 32 33 27 32 32 31
6 8 11 13 15 17 17 19 18 17 18 20 21 19 22 25 27 27 23 21 22 24 25 31 30 28 26 25 26 31 32 31 34 32 28 26 31 30
8 10 12 13 16 16 17 17 20 20 20 20 18 20 22 25 21 26 26 23 23 24 27 27 24 20 11 12 32 23 25 28 31 34 30 29 29 33
8 9 11 14 15 16 17 18 20 21 21 20 21 21 23 22 25 23 23 23 24 27 28 27 23 21 12 16 19 42 30 26 25 27 30 31 34 37
9 11 12 13 15 16 18 19 19 21 19 21 21 21 23 23 25 25 25 27 28 25 23 27 30 32 36 33 16 27 38 34 26 27 29 25 25 27
11 13 14 14 16 17 19 20 21 22 23 23 22 23 25 26 25 26 26 27 27 26 28 33 34 29 27 23 16 26 29 39 40 29 27 27 22 6
13 14 15 17 17 19 20 21 22 23 23 24 24 26 27 28 27 27 29 29 28 28 27 29 30 29 27 27 28 23 29 32 33 35 33 24 27 30

GFSNE_925_spd_033.txt.gz
Wind_Speed
29 26 22 19 16 14 13 9 4 3 4 6 5 10 12 12 14 14 15 17 17 19 21 22 22 22 23 23 23 24 25 26 27 28 29 30 31 32
28 26 21 15 10 11 10 9 7 5 3 7 7 7 8 13 16 14 17 19 19 21 21 21 22 21 23 24 24 25 26 27 28 29 29 31 29 30
24 22 18 15 13 5 4 5 6 8 5 4 10 11 14 15 16 17 18 19 19 23 22 22 21 21 22 24 25 26 27 27 28 29 29 29 30 29
24 19 16 14 11 9 5 5 7 9 7 11 8 12 16 15 16 18 19 19 20 23 22 21 22 23 22 22 23 24 24 25 27 28 30 31 31 32
23 18 15 11 10 9 7 7 7 10 9 11 10 12 13 15 13 15 16 19 21 21 19 21 19 19 20 22 24 25 27 29 30 30 30 31 31 32
19 17 14 12 10 8 6 6 11 12 11 10 11 11 11 11 12 15 17 18 22 20 20 17 18 20 24 26 27 27 27 27 27 28 29 30 31 32
15 12 8 7 6 3 5 8 9 11 9 11 12 10 12 13 14 17 19 20 20 21 16 14 18 23 25 24 24 23 24 25 26 26 28 30 31 32
14 9 6 3 1 7 7 8 8 9 9 9 11 13 15 15 15 17 18 19 12 12 9 24 23 28 25 22 24 25 27 29 29 29 30 31 32 32
10 6 4 6 5 4 5 4 6 10 10 13 13 14 16 16 18 18 18 17 19 26 24 26 24 25 23 22 25 27 29 29 28 28 28 29 30 31
8 8 6 3 0 2 4 6 9 11 12 14 14 16 16 16 16 17 19 22 22 24 18 15 21 22 23 24 27 28 25 26 27 28 28 28 30 31
7 4 1 3 4 4 6 9 10 13 14 15 13 13 14 17 18 17 17 16 16 17 17 17 18 23 26 29 20 21 22 25 28 31 33 32 31 31
5 0 4 6 6 6 7 6 8 12 14 14 14 18 17 15 13 11 11 13 14 12 4 6 21 19 9 18 15 23 27 26 29 29 30 31 30 30
1 4 4 3 5 6 6 8 10 12 10 13 14 13 11 11 11 11 11 12 13 15 21 16 16 23 15 16 25 24 27 31 28 29 27 27 26 24
1 2 4 5 4 6 8 11 10 10 12 11 10 12 12 14 15 15 16 16 16 23 28 21 15 18 21 24 20 28 30 31 29 31 27 26 25 25
4 4 2 3 7 10 8 8 7 9 7 8 10 13 13 17 17 18 18 19 21 23 22 19 22 26 24 25 26 32 30 31 31 28 26 24 25 24
5 2 5 7 7 6 6 5 5 6 6 9 11 14 15 14 15 13 15 18 21 21 19 20 19 22 28 28 27 32 30 19 27 30 27 31 28 27
3 5 6 7 7 7 7 6 7 8 8 9 11 12 13 13 14 15 16 17 15 21 26 27 22 23 28 30 29 31 28 30 31 30 26 31 31 29
4 4 4 5 6 8 8 9 10 10 11 13 13 13 13 15 16 17 15 16 20 23 23 26 26 25 24 23 25 31 26 26 32 32 28 26 32 30
3 3 5 6 8 8 9 11 12 14 16 15 16 16 17 17 16 17 18 18 20 23 25 25 23 19 11 13 27 21 28 32 31 32 30 28 30 35
5 5 7 8 10 11 12 13 15 17 17 17 18 19 18 15 16 18 19 20 21 24 26 24 22 21 15 16 19 40 26 27 25 28 31 32 33 36
8 8 9 10 12 13 14 16 18 19 17 18 20 20 20 17 19 21 22 24 25 24 23 24 28 28 33 32 15 26 34 28 25 27 29 26 29 28
11 12 13 13 15 16 17 18 20 20 20 21 22 23 22 21 23 22 22 23 25 26 28 30 31 28 24 22 19 29 33 37 34 26 26 29 24 8
14 14 15 16 17 18 19 20 21 23 24 25 25 26 26 25 24 23 24 26 27 29 28 28 27 27 24 26 28 28 32 33 33 34 28 22 26 31

GFSNE_925_spd_036.txt.gz
Wind_Speed
29 32 35 31 24 19 16 13 7 4 5 6 4 8 9 8 9 9 13 14 16 19 19 20 21 22 23 23 23 24 24 25 25 25 26 27 28 28
24 29 28 22 20 17 15 14 8 7 2 4 5 3 6 4 10 14 14 17 18 18 20 20 21 22 23 23 23 24 25 25 26 26 27 28 28 28
26 28 25 24 18 15 15 13 13 10 3 4 5 5 11 16 16 15 15 16 17 19 20 22 23 23 22 23 24 25 25 25 25 26 27 28 27 28
19 19 18 21 18 14 10 7 6 6 4 3 7 10 13 13 13 15 16 16 19 20 22 22 22 22 23 23 22 22 22 24 25 26 27 28 29 30
21 21 18 18 15 11 10 9 6 4 7 6 3 5 8 10 14 14 17 18 19 20 21 22 21 22 22 21 22 24 25 26 27 28 30 31 31 31
22 19 17 15 14 11 9 7 6 4 6 4 7 10 11 11 12 15 16 17 21 19 20 22 20 20 23 23 24 25 26 26 26 26 27 28 29 30
20 18 15 12 10 8 7 7 6 6 7 10 10 8 11 12 14 14 16 18 19 21 21 17 17 20 22 22 23 24 23 23 25 26 27 28 29 30
20 16 14 10 8 5 2 2 5 7 8 11 10 13 13 13 13 15 16 17 14 13 12 21 22 25 24 23 23 25 26 27 28 29 29 29 31 32
14 12 11 8 5 6 9 10 11 11 10 12 16 15 14 14 13 15 16 16 18 24 23 25 24 25 23 24 25 27 29 30 29 28 27 28 29 30
10 8 6 6 5 3 5 6 8 6 9 11 14 15 14 14 14 14 15 19 21 23 20 21 23 22 24 25 27 28 29 28 27 27 27 28 29 30
7 5 5 3 2 5 7 6 7 8 9 12 14 14 14 15 16 16 16 16 17 22 19 18 20 21 24 29 23 19 22 24 26 27 29 30 30 30
5 3 1 1 3 4 5 6 8 10 12 13 12 12 13 13 13 13 14 15 15 12 4 6 15 16 7 14 14 21 23 23 25 27 29 30 29 29
2 1 2 1 3 4 3 5 9 12 14 12 13 12 11 11 10 10 13 15 15 19 19 16 13 20 16 19 21 22 26 25 25 27 27 28 26 24
1 3 4 4 3 4 7 8 11 11 11 11 11 11 11 11 11 12 13 16 19 26 29 23 16 18 19 22 20 25 26 31 29 28 24 25 24 24
3 3 3 4 7 8 8 8 8 8 9 10 11 11 11 13 15 13 14 15 19 23 26 23 24 25 23 24 26 32 27 28 34 29 23 23 24 24
5 3 5 8 8 8 7 6 6 7 8 11 12 13 13 13 13 12 14 15 18 20 14 21 21 22 25 25 27 32 28 19 25 30 28 30 29 27
4 5 6 5 5 5 5 6 6 7 9 10 12 13 14 14 14 13 15 16 17 21 23 19 18 21 26 28 29 31 29 27 27 31 28 30 31 29
6 6 6 6 6 6 7 7 7 8 9 10 12 13 15 15 16 15 16 17 18 20 21 22 23 25 25 25 26 32 28 29 30 28 29 28 31 28
6 7 7 7 7 7 8 8 9 9 11 11 12 13 14 16 16 16 16 17 19 21 22 23 23 21 12 14 22 19 28 32 31 31 28 27 30 33
6 7 8 8 7 8 8 9 9 10 11 12 14 14 15 15 17 17 18 18 20 22 25 24 23 23 17 16 19 34 27 33 29 29 30 31 34 36
7 8 8 9 9 10 10 10 11 12 13 16 16 16 16 15 18 19 20 22 24 23 23 26 28 29 33 33 20 26 28 27 31 33 33 29 27 32
8 9 10 10 11 12 12 13 13 14 14 15 17 18 18 17 19 20 20 21 22 23 27 32 33 30 28 24 20 28 32 33 29 31 31 33 30 8
10 10 11 12 12 13 14 14 15 16 17 18 19 20 20 20 20 21 22 23 24 27 29 31 32 29 27 27 29 27 32 33 31 31 28 25 31 37

GFSNE_925_spd_039.txt.gz
Wind_Speed
26 25 21 19 24 29 25 20 9 4 5 9 7 17 14 13 13 12 7 10 13 16 18 17 17 19 19 20 21 21 21 22 22 22 22 23 24 25
25 24 22 22 22 19 16 11 10 5 3 3 3 13 13 11 8 10 14 15 17 18 17 19 19 20 21 22 21 22 23 22 22 23 24 25 25 26
22 24 25 23 21 18 15 19 16 15 7 4 7 8 9 11 14 16 18 19 20 18 18 20 21 23 22 23 21 22 24 24 23 23 23 25 26 26
17 18 18 18 18 17 15 10 9 7 7 8 11 10 12 13 14 15 16 15 19 18 19 21 23 24 23 22 21 21 23 23 23 24 24 24 26 27
15 16 18 19 19 18 16 14 8 7 7 8 8 8 8 10 10 11 13 15 18 18 19 20 21 22 22 21 21 22 24 25 25 25 25 26 28 29
13 15 17 19 20 17 14 11 10 9 8 7 5 4 6 9 11 14 13 12 13 16 20 20 21 21 20 20 22 24 24 24 24 24 24 25 26 27
14 15 14 12 11 12 12 13 11 9 5 3 3 4 7 9 11 11 12 13 14 19 19 18 16 18 22 23 23 22 21 21 21 22 24 26 27 28
18 17 15 13 14 7 8 8 6 6 6 7 6 6 11 12 10 10 10 10 8 11 9 20 22 23 24 25 23 23 23 25 25 26 27 28 29 30
15 14 12 9 8 9 7 5 7 6 8 6 7 10 11 10 8 12 14 13 16 20 19 24 23 25 25 25 22 24 25 26 27 27 27 28 28 29
10 8 6 4 4 2 3 1 1 5 8 8 10 11 11 11 11 13 15 16 18 19 16 19 24 24 26 27 25 25 26 26 25 25 25 26 27 28
7 7 4 4 2 1 2 3 5 7 6 7 10 13 14 14 14 14 15 14 14 16 17 16 15 19 23 31 27 20 19 21 24 27 27 27 27 28
4 1 2 3 3 3 4 6 6 6 7 9 11 10 11 13 12 14 15 14 12 10 1 4 11 12 8 17 16 21 28 24 25 28 28 27 28 28
2 2 3 3 3 4 3 4 6 8 11 11 10 10 10 10 10 11 13 15 15 18 16 16 12 13 13 19 21 26 31 31 27 28 28 27 27 25
3 4 4 4 3 4 6 7 9 10 9 9 9 10 10 10 11 13 15 16 18 24 25 21 18 20 21 23 21 27 28 30 31 31 28 26 25 25
4 5 6 6 7 8 6 8 8 7 8 9 9 10 10 12 16 19 16 17 20 22 23 23 27 28 25 26 27 33 31 29 33 28 25 24 26 24
7 6 8 10 9 8 8 6 6 6 7 9 11 11 13 14 14 14 15 15 18 20 19 21 25 28 28 27 27 32 32 21 30 32 32 29 33 32
9 8 9 8 8 8 7 7 7 7 8 9 11 12 13 14 15 14 15 16 17 19 21 18 18 22 27 30 28 32 33 31 29 31 31 31 32 35
8 10 8 8 8 8 7 7 7 9 9 11 12 13 14 14 15 16 16 18 19 20 22 22 20 22 24 26 28 35 31 32 30 28 28 28 30 29
9 8 8 8 8 8 8 8 9 10 12 14 14 15 15 15 16 17 18 18 21 22 23 23 22 20 10 13 22 20 29 27 30 32 30 28 31 34
8 8 9 9 9 9 9 10 11 12 13 14 15 15 16 18 17 17 18 20 22 24 26 25 23 22 19 16 20 31 30 36 31 30 29 30 33 36
8 9 10 11 11 11 12 12 13 15 15 16 17 17 18 19 20 20 21 23 25 24 26 26 26 26 31 31 21 27 30 28 31 34 31 31 30 30
10 11 12 12 13 14 14 15 16 17 17 17 18 17 19 20 22 23 23 23 24 25 28 31 30 28 26 24 24 32 33 32 30 32 34 35 32 9
12 13 14 15 15 17 17 18 19 20 21 22 22 22 21 22 23 24 25 26 27 28 28 29 29 26 28 30 32 31 34 32 28 32 29 29 33 39

GFSNE_925_spd_042.txt.gz
Wind_Speed
35 35 31 30 30 25 21 17 10 5 3 7 9 18 20 18 18 17 14 11 11 10 11 14 17 15 14 16 18 18 19 19 19 19 19 19 19 20
27 26 27 25 25 26 27 22 18 10 3 6 10 21 24 23 17 19 22 23 20 17 13 15 17 17 17 19 20 20 20 19 18 19 20 20 20 21
17 20 24 25 23 20 19 19 18 17 5 7 15 18 17 18 19 20 23 21 21 19 15 16 18 18 18 21 21 20 20 20 20 19 19 20 20 21
12 14 16 16 16 15 15 16 15 15 10 8 13 18 22 22 18 19 19 16 15 17 15 16 17 19 20 20 21 21 21 19 19 19 20 20 21 21
8 11 12 13 13 12 12 12 13 12 13 13 9 14 16 16 13 15 14 14 16 14 12 14 16 18 19 20 20 20 20 19 21 22 21 21 22 23
3 6 7 8 12 12 13 14 14 14 11 11 7 6 6 8 9 12 14 10 10 9 13 16 19 19 17 16 17 18 19 19 20 20 20 21 22 23
6 5 5 7 9 10 12 12 11 9 7 8 7 5 7 7 10 7 10 7 8 15 19 15 14 14 17 21 20 20 18 17 18 18 20 21 23 25
14 14 12 12 10 7 6 7 6 8 9 5 5 3 7 9 11 11 3 5 4 12 6 23 23 21 20 21 19 17 18 18 19 20 21 23 24 26
13 12 9 7 7 7 6 4 5 1 1 3 5 6 6 4 5 8 11 12 14 19 18 25 19 22 22 23 20 19 19 19 20 21 22 23 23 25
10 9 6 5 4 3 2 2 2 1 6 7 7 7 7 7 7 8 9 11 14 16 15 15 15 26 22 21 23 20 18 16 16 18 20 22 24 25
10 9 8 6 5 3 4 5 4 4 4 5 6 9 11 11 11 12 13 14 13 10 18 17 11 18 26 24 10 10 12 15 20 22 22 23 25 26
6 6 4 1 3 2 3 6 3 2 4 8 11 11 12 11 11 11 12 13 12 8 4 4 9 12 10 11 11 27 25 26 22 23 24 23 24 26
4 4 2 4 4 4 4 5 5 8 10 11 11 11 10 10 10 9 11 13 14 17 14 14 9 13 8 13 25 23 27 28 32 31 26 23 21 20
4 4 3 4 4 6 7 7 9 9 10 8 8 9 10 10 11 12 13 15 17 20 20 18 15 17 18 21 18 25 29 31 29 32 28 24 24 23
5 7 5 5 6 8 7 8 9 8 6 7 9 9 9 10 13 17 16 16 17 18 19 21 24 27 24 23 25 31 26 32 33 23 26 31 31 31
7 7 8 9 7 8 8 7 6 6 7 9 11 11 13 15 14 14 16 17 18 20 18 18 21 25 29 27 26 31 30 19 28 33 33 33 34 32
11 10 9 9 8 9 7 7 7 7 8 10 11 13 12 13 14 15 17 18 17 20 21 20 20 21 26 28 27 30 33 32 30 33 32 30 32 35
10 10 10 8 9 9 9 10 9 9 9 10 12 14 16 17 19 19 17 16 18 20 21 21 21 22 22 26 27 34 33 31 32 30 30 27 29 30
10 9 10 10 10 11 11 10 11 11 12 13 15 16 18 19 18 20 19 18 19 19 21 20 19 18 10 13 26 23 31 28 28 30 30 29 30 34
8 10 12 12 12 13 13 12 12 14 14 15 15 17 20 20 19 19 19 19 20 22 23 22 20 20 19 15 23 32 29 36 31 31 32 33 36 35
12 13 13 14 15 15 16 15 15 16 17 18 19 20 22 20 21 22 23 24 24 22 22 24 24 23 28 29 22 29 32 30 34 36 35 33 31 28
14 15 16 17 17 18 19 19 20 22 24 24 25 25 26 25 24 24 24 24 23 23 26 29 28 26 25 24 25 30 33 33 33 35 36 39 36 13
16 17 18 19 20 20 21 22 22 24 26 27 28 29 28 27 26 26 26 25 25 25 25 26 26 25 27 27 31 32 33 34 33 31 32 33 33 42

GFSNE_925_spd_045.txt.gz
Wind_Speed
29 31 33 35 35 33 31 26 20 7 6 9 8 18 23 22 27 27 26 23 22 17 17 19 16 16 17 17 17 15 15 17 16 17 16 18 18 18
21 22 26 27 24 25 25 25 23 18 5 17 12 19 26 30 32 35 28 27 20 20 17 19 19 17 17 19 18 18 18 18 17 16 17 18 19 20
11 13 17 17 18 19 19 20 22 22 11 9 18 20 25 26 27 22 18 20 18 21 23 26 20 17 19 19 18 20 19 18 17 18 18 18 19 19
10 9 12 13 15 14 14 12 14 17 14 6 15 17 20 23 22 21 19 16 20 24 23 16 16 17 18 18 18 19 18 17 17 18 17 18 19 19
6 5 4 5 8 7 10 10 12 13 12 9 7 13 15 19 17 18 17 19 21 17 15 14 13 13 18 18 18 18 17 17 17 18 18 20 20 20
3 3 3 3 4 5 6 8 8 7 6 6 5 6 7 9 14 13 11 11 12 11 9 10 13 16 17 15 14 14 16 16 17 17 17 18 19 20
8 7 8 6 5 2 2 4 4 5 4 5 4 4 7 6 7 4 7 5 9 9 10 16 13 14 16 19 19 17 15 15 15 16 17 18 19 20
11 11 11 11 10 7 5 2 1 2 2 2 2 2 2 2 5 8 8 4 2 4 2 20 17 19 14 12 13 14 13 15 15 16 17 19 20 22
11 9 9 8 7 8 7 5 4 2 2 2 2 1 2 1 1 4 5 8 9 14 14 17 18 21 13 16 13 14 14 14 15 15 16 18 19 20
8 7 7 6 5 5 6 6 3 2 3 5 6 6 4 4 6 8 9 10 13 16 15 8 11 18 15 16 16 12 8 7 9 11 14 17 19 21
10 9 8 7 6 4 4 4 3 4 3 4 3 5 7 9 9 9 10 10 10 5 12 13 9 14 20 10 2 4 4 14 13 14 15 18 19 20
6 5 5 6 5 5 5 5 3 1 4 7 10 10 9 10 10 10 11 11 9 5 2 6 6 9 9 6 5 16 17 15 14 18 18 17 17 19
4 4 3 5 5 4 5 6 5 7 10 11 10 7 7 6 5 6 8 9 11 12 11 13 4 8 8 11 17 19 19 21 27 23 21 17 15 14
3 5 6 5 6 6 7 7 6 7 9 7 6 6 5 5 5 7 9 12 15 18 20 17 13 13 15 18 16 17 26 30 23 28 24 20 20 22
3 6 4 6 7 8 6 6 6 6 4 5 6 7 8 10 12 13 12 13 14 15 16 16 19 22 22 21 23 28 23 25 33 18 25 30 30 29
8 10 8 8 7 7 8 7 7 6 7 8 8 9 11 12 12 10 13 15 17 17 14 15 17 20 23 25 25 29 27 16 27 31 30 34 33 32
9 11 9 7 6 8 8 7 7 7 7 9 9 9 9 10 13 13 15 17 15 18 19 18 18 20 24 28 27 28 30 30 29 30 28 29 29 29
10 10 9 8 9 9 10 10 10 9 9 10 11 12 14 15 17 15 15 15 17 18 20 22 21 20 21 26 28 32 30 30 28 28 28 27 32 28
10 9 9 11 12 11 11 11 12 11 11 13 13 14 15 16 16 19 17 17 18 20 22 24 23 18 9 11 23 23 29 29 25 27 27 28 31 35
8 10 11 11 13 13 13 14 14 14 13 14 16 16 17 18 18 18 19 20 21 23 24 25 23 22 19 14 20 33 29 31 28 30 31 31 33 35
12 12 12 13 14 15 16 17 18 19 18 18 20 23 25 23 21 21 22 24 24 22 21 24 27 24 27 28 21 30 30 27 29 32 30 29 30 29
13 14 15 15 16 17 18 19 20 21 22 23 24 25 25 24 24 24 23 23 23 23 27 30 30 28 25 23 25 31 34 32 30 32 35 38 34 12
15 15 16 18 18 19 20 21 21 23 25 26 26 26 26 26 25 24 25 24 25 25 26 28 26 24 26 26 30 31 33 35 32 30 33 32 37 42

GFSNE_925_spd_048.txt.gz
Wind_Speed
15 17 22 24 26 28 29 26 18 3 3 11 13 14 20 25 29 31 35 27 27 26 27 25 28 27 22 18 18 17 18 17 17 17 17 18 19 18
9 13 17 21 23 22 23 24 21 15 4 8 12 12 15 19 26 30 31 28 21 21 22 21 21 19 19 19 19 19 19 18 18 18 18 19 18 19
7 6 7 11 13 13 14 16 19 17 8 7 11 14 16 21 22 25 24 25 24 21 20 16 17 19 21 20 19 19 20 20 19 18 19 19 18 19
6 6 6 6 6 8 9 10 10 11 9 6 9 11 14 19 23 20 20 22 21 22 22 18 19 19 18 18 19 18 19 19 18 17 18 18 18 18
5 5 5 5 6 8 8 7 8 8 10 5 5 6 13 15 16 17 16 17 15 17 16 17 17 16 17 17 18 18 19 19 17 17 17 18 19 19
6 6 6 6 5 4 3 2 2 1 1 3 3 3 4 5 13 12 13 13 14 13 10 11 10 13 15 16 17 16 15 14 15 16 17 17 18 19
12 12 13 13 11 7 5 5 4 4 3 3 3 1 2 1 3 2 4 4 7 9 9 12 16 17 17 18 19 19 17 17 16 16 15 16 17 18
13 12 10 11 13 12 10 8 7 5 5 3 3 3 3 2 1 3 5 4 2 3 6 13 17 21 17 15 14 14 14 14 15 15 15 16 17 18
10 10 10 9 7 6 5 3 5 5 5 3 3 2 2 1 0 1 2 5 7 10 11 18 17 21 12 11 13 13 12 14 14 14 15 15 15 17
11 11 11 10 9 8 7 6 5 4 4 2 2 3 3 3 5 7 7 8 10 14 14 8 10 16 14 13 15 15 13 9 7 8 11 14 16 17
9 10 10 9 7 5 6 6 5 4 3 2 0 1 3 5 6 9 8 8 8 5 5 9 7 13 18 12 2 6 9 8 12 12 13 15 17 18
6 6 6 7 6 6 8 7 6 5 7 8 9 11 12 11 10 11 10 10 8 6 1 3 5 10 8 5 4 9 11 13 12 14 16 16 15 17
5 5 5 6 7 7 7 8 7 8 10 11 11 9 7 6 6 6 8 9 10 13 9 9 7 7 9 9 16 17 20 14 19 24 16 15 15 15
5 6 8 6 7 7 8 7 7 8 11 9 7 6 5 4 4 6 7 10 12 16 15 15 13 11 12 15 14 12 21 27 27 21 24 20 17 19
5 7 8 8 8 7 7 6 6 7 6 5 6 7 7 8 10 12 11 11 13 15 16 16 19 21 21 19 22 24 23 16 28 26 14 26 30 28
7 9 8 6 5 5 7 5 5 6 6 7 7 9 10 10 9 9 13 13 17 17 11 10 15 18 21 22 22 29 26 16 22 26 27 31 31 31
9 10 8 5 5 8 7 6 6 6 6 7 9 9 9 10 11 13 14 15 17 19 21 18 13 14 21 25 24 25 28 27 26 27 24 25 26 26
10 9 7 6 8 8 8 9 9 8 9 9 10 12 13 15 16 15 14 19 19 20 22 22 20 19 16 20 25 29 27 27 27 25 27 27 31 31
7 7 7 8 9 9 10 10 12 11 10 11 13 14 15 16 15 18 21 18 18 20 24 25 23 19 8 9 18 20 28 27 26 26 26 26 31 35
8 9 10 10 11 12 13 13 14 14 14 14 16 16 16 17 18 21 21 21 21 22 23 23 22 21 17 11 17 29 25 28 28 27 29 28 32 33
11 12 11 12 13 14 15 15 16 17 17 16 18 20 22 23 24 25 23 22 22 21 22 22 23 20 24 26 19 28 31 26 27 30 28 26 27 28
13 13 14 14 15 16 17 18 19 20 21 21 22 22 23 22 24 26 25 23 22 22 25 28 28 25 22 20 24 28 31 31 29 27 31 34 31 10
13 14 16 17 17 18 19 20 21 23 23 23 24 25 24 25 25 26 26 23 23 23 24 26 24 21 24 24 28 30 32 33 29 28 32 30 34 39

GFSNE_925_spd_051.txt.gz
Wind_Speed
7 9 14 17 15 16 18 20 12 3 3 5 6 9 14 18 24 26 30 33 32 29 25 27 25 24 23 22 20 20 19 19 19 17 18 18 18 18
3 4 6 7 9 10 11 14 15 12 3 2 4 11 13 13 14 20 27 28 28 23 22 25 24 23 22 21 19 19 20 19 18 18 19 21 20 19
5 6 4 4 5 5 5 5 5 6 4 5 9 12 12 10 13 17 20 23 20 17 17 16 17 19 19 18 19 20 18 18 18 20 21 20 20 18
9 6 6 7 6 6 5 5 5 4 3 4 5 7 7 8 11 12 16 16 19 19 16 17 18 16 16 19 19 18 19 20 18 19 19 19 19 18
6 6 7 7 7 7 6 4 4 4 5 4 4 5 4 6 8 10 11 13 15 15 15 15 15 14 17 18 19 18 17 18 18 19 19 18 18 18
11 12 12 12 9 7 6 6 6 5 4 2 2 3 3 3 5 7 9 9 10 12 13 14 11 10 11 11 15 16 18 17 15 16 16 17 18 18
15 15 15 14 12 10 8 8 6 6 5 5 3 2 2 3 2 1 2 3 6 8 8 9 12 14 17 19 20 20 19 17 17 19 18 18 17 17
12 10 9 8 9 11 10 11 11 8 6 3 3 2 2 3 2 2 2 2 2 2 5 8 10 17 21 21 19 18 16 15 17 17 16 15 16 17
11 10 9 9 8 8 7 6 5 5 5 4 3 3 2 2 2 2 2 3 4 8 10 15 16 23 19 14 13 13 14 15 16 15 15 16 16 17
11 11 9 9 10 8 8 7 6 5 7 3 2 3 3 3 4 5 6 7 10 12 12 7 11 15 16 12 14 16 14 14 14 13 13 12 13 15
8 8 9 8 8 6 8 8 6 4 3 3 2 1 2 3 6 8 7 8 6 4 6 8 7 14 18 13 5 5 7 9 10 11 11 11 14 16
5 4 4 7 6 6 10 9 9 6 7 8 8 9 10 10 8 8 8 8 7 5 2 2 5 10 8 5 3 6 11 10 11 12 11 14 15 16
6 6 7 7 7 7 7 9 9 9 9 11 10 8 6 4 4 3 4 5 7 9 9 8 5 9 8 9 15 14 16 19 18 16 20 22 15 15
6 6 8 7 8 8 8 8 8 8 11 9 7 6 5 4 5 6 7 9 11 14 15 14 10 10 13 17 13 12 21 25 27 25 19 21 24 19
7 7 9 8 8 9 7 7 8 9 8 7 7 8 8 8 10 11 11 11 13 15 17 17 19 20 20 19 21 23 21 16 26 30 19 15 24 27
7 7 9 8 6 5 7 8 7 7 7 8 7 9 10 10 9 9 12 13 15 18 11 11 13 15 19 22 23 29 24 15 20 25 28 28 25 23
9 9 9 7 6 8 7 7 7 7 7 8 9 9 8 9 11 12 13 14 15 21 22 18 13 13 17 23 25 27 29 27 25 25 24 24 23 23
9 10 9 7 8 9 9 10 9 8 8 9 10 11 13 14 16 16 14 15 21 23 24 23 20 19 15 17 21 30 27 26 26 27 27 26 27 29
9 8 8 9 11 11 11 12 13 12 11 12 13 13 13 15 15 16 16 19 20 21 24 23 22 18 7 8 15 18 27 28 29 27 30 29 30 35
11 11 11 11 12 13 13 14 15 15 15 15 16 16 16 19 20 20 21 21 22 23 24 22 20 20 15 9 13 25 22 29 26 29 29 31 34 33
13 13 12 13 14 14 15 15 17 18 18 18 19 20 21 21 24 26 27 21 21 20 22 23 26 20 23 23 18 27 27 25 28 31 27 24 27 29
14 14 14 15 16 17 17 18 20 21 21 21 23 23 22 22 24 26 26 24 22 22 25 31 30 26 23 19 24 26 27 26 27 27 30 32 28 8
14 15 16 17 18 19 20 21 22 23 23 24 24 25 24 25 24 25 26 25 24 23 23 25 24 21 23 24 27 29 32 32 27 26 30 31 35 41

GFSNE_925_spd_054.txt.gz
Wind_Speed
2 4 6 9 8 9 11 12 5 2 2 1 2 6 10 12 13 15 17 19 20 26 30 25 20 16 20 22 19 22 20 19 18 19 19 16 15 15
0 1 1 1 1 2 4 6 7 3 3 0 1 10 12 13 15 15 15 16 15 20 25 24 23 21 19 18 23 21 19 18 20 19 17 17 16 16
7 5 2 1 1 2 3 2 3 2 3 4 5 9 10 11 11 10 11 12 11 9 11 12 15 20 23 22 19 19 21 19 17 16 17 16 16 16
7 3 3 3 3 3 2 3 2 2 3 3 5 8 8 8 6 5 7 9 9 8 12 11 10 11 13 15 17 17 18 15 16 18 16 15 15 16
10 10 10 7 8 6 6 5 5 4 3 2 3 5 4 6 5 3 5 7 10 16 17 20 21 18 16 15 16 17 17 15 13 14 15 15 15 16
15 16 16 15 12 11 12 10 8 7 6 4 3 4 4 5 4 4 4 5 7 8 10 11 12 14 13 13 10 10 12 13 14 15 14 14 14 15
15 15 16 16 15 15 13 11 8 7 6 5 4 4 5 5 5 5 3 3 4 5 7 7 9 11 11 13 16 20 21 19 17 16 16 17 16 16
12 12 10 8 8 9 9 12 11 9 7 4 5 4 4 4 4 5 5 4 3 4 6 7 8 12 15 19 20 20 18 16 15 15 17 16 15 15
13 13 11 11 9 9 9 8 5 5 5 4 4 4 4 5 4 5 5 5 5 10 13 12 13 18 13 11 11 12 11 12 13 13 13 14 14 14
12 11 10 10 9 9 9 7 5 7 8 5 4 4 3 4 5 6 7 7 10 11 8 5 8 16 12 11 12 12 13 11 10 10 12 13 12 13
8 8 8 8 7 7 9 7 6 4 3 2 3 4 4 5 6 9 8 8 7 4 6 5 6 15 16 7 5 5 1 5 7 7 7 9 10 12
5 4 3 5 6 6 9 8 8 6 6 7 8 8 9 8 7 7 7 7 6 5 2 4 6 9 8 5 4 4 6 6 9 10 11 11 12 15
5 5 6 5 5 6 6 9 7 7 6 9 8 5 4 3 2 2 3 4 5 6 7 6 6 9 7 8 16 17 15 13 15 19 19 19 20 21
5 5 7 7 6 6 5 5 5 6 7 6 5 4 4 4 4 6 7 8 10 13 13 14 11 10 11 15 11 13 20 23 22 23 22 19 20 22
6 5 6 8 7 6 4 4 6 6 6 5 5 5 6 8 9 9 9 9 12 13 13 13 16 17 17 17 18 21 18 13 26 24 16 15 20 23
6 5 6 8 6 5 6 7 6 6 6 6 6 7 9 8 8 8 12 14 15 13 10 11 10 12 18 18 20 24 22 14 19 27 27 25 23 22
8 8 8 7 6 6 6 6 7 6 6 7 8 8 9 9 11 12 13 15 14 18 22 20 13 13 17 22 25 28 33 30 28 28 24 25 23 24
9 10 10 9 8 9 9 9 9 8 8 9 11 11 13 14 15 15 14 15 17 21 24 24 20 18 17 19 19 28 27 28 28 26 23 24 25 25
11 11 10 10 10 10 10 11 13 11 10 12 13 14 16 18 17 18 18 17 22 22 26 25 21 16 5 7 13 18 28 27 27 28 27 27 29 31
14 14 14 12 12 12 12 13 14 14 14 14 15 17 17 18 19 20 20 22 24 26 26 25 21 20 14 7 11 25 23 27 28 31 29 32 34 29
13 14 14 13 14 14 14 14 15 16 17 18 19 19 20 20 23 23 24 20 20 20 21 24 27 18 21 22 17 26 31 27 27 31 28 24 26 27
14 14 14 14 15 15 15 16 18 18 19 19 21 21 21 21 22 23 24 24 24 24 27 31 29 24 20 17 22 24 26 27 27 27 30 32 27 8
15 15 15 15 16 16 17 19 20 20 20 21 22 23 22 23 22 22 24 25 25 25 25 26 26 21 21 23 26 28 30 30 28 27 31 32 34 40

GFSNE_925_spd_057.txt.gz
Wind_Speed
4 6 8 8 8 8 8 8 5 2 3 3 2 2 7 9 12 13 14 14 13 13 16 20 21 21 14 20 20 15 12 11 14 18 17 19 19 18
1 1 2 1 0 1 2 2 4 6 2 4 3 6 8 9 11 11 10 10 9 12 17 14 14 14 14 9 9 10 13 16 23 17 18 20 15 16
3 2 2 2 2 2 1 1 0 2 3 2 3 5 8 9 8 7 6 7 7 5 15 8 10 9 8 10 13 16 19 17 19 22 22 15 15 14
6 5 3 1 1 0 1 1 0 1 2 2 2 5 5 7 6 4 4 4 4 5 5 3 3 4 8 11 12 13 17 15 17 18 19 18 15 14
9 8 6 4 5 4 4 4 4 3 1 0 1 4 3 6 4 4 4 4 5 8 12 13 13 14 13 14 14 14 15 16 16 13 12 14 14 15
13 12 11 10 9 8 8 7 5 4 3 3 2 2 3 4 6 7 7 7 7 6 7 8 9 11 11 14 15 14 14 14 16 16 14 15 15 14
13 13 14 14 12 10 8 7 5 4 3 3 2 2 3 4 5 5 4 5 4 6 7 6 6 7 9 10 11 13 15 16 15 15 16 17 17 17
13 10 8 6 6 6 5 8 8 5 4 2 2 2 2 3 4 5 4 4 2 5 9 9 11 11 13 15 17 19 20 19 17 16 15 16 16 16
12 10 8 7 5 5 5 3 4 5 4 3 3 2 2 2 3 3 4 3 3 8 9 8 8 9 8 12 12 13 12 12 12 13 12 12 13 14
10 8 7 7 6 5 4 4 4 6 6 5 5 3 2 3 2 4 4 6 7 7 6 4 6 9 10 10 10 8 11 12 11 11 12 12 13 13
5 5 5 6 3 3 4 4 2 2 2 0 2 3 4 5 5 7 5 5 5 2 4 3 5 11 8 3 3 3 3 1 8 9 9 9 11 12
3 3 2 2 1 2 3 3 2 1 1 3 4 4 5 4 5 5 4 2 2 3 1 4 5 7 6 4 4 10 9 6 7 8 9 9 9 11
1 1 1 0 1 1 3 3 3 2 3 5 4 2 2 1 1 1 2 2 3 4 5 3 5 7 4 8 11 11 7 6 9 12 16 18 16 15
3 3 1 2 3 3 4 2 2 4 4 3 3 2 2 2 4 5 6 7 8 11 12 13 7 8 8 12 10 7 12 15 14 12 12 16 19 21
4 3 3 4 4 4 2 2 5 5 4 3 3 4 4 6 7 7 8 9 11 12 10 9 12 13 11 11 14 15 16 9 17 12 7 14 18 18
5 6 5 6 4 3 4 6 6 5 5 5 5 6 7 7 6 5 7 9 10 7 4 8 8 12 13 15 17 22 17 12 14 16 19 20 18 17
6 7 7 7 5 5 5 5 5 6 6 7 8 7 7 6 7 7 10 10 11 13 11 11 12 14 18 22 20 23 24 22 21 20 15 19 19 18
9 9 9 8 7 7 7 7 8 7 8 9 10 11 11 11 10 10 10 10 12 13 14 13 12 13 11 16 18 24 17 19 16 16 15 17 23 21
12 12 12 10 9 9 9 10 11 9 10 11 12 13 14 15 13 12 13 13 15 16 17 15 13 9 8 9 12 18 23 20 19 19 18 21 25 29
14 16 16 14 12 11 11 12 12 12 13 13 14 15 15 16 15 14 13 14 15 17 19 16 16 15 16 10 12 20 20 24 25 25 25 25 28 29
16 16 16 15 14 13 13 14 14 14 15 16 16 16 16 17 19 19 19 17 17 18 20 21 20 18 20 18 16 23 25 27 27 30 22 21 23 25
17 17 15 14 14 14 14 15 16 16 17 18 18 18 18 18 19 20 18 16 16 17 22 27 24 19 15 16 22 24 22 21 22 26 29 31 27 8
18 17 16 14 14 14 15 16 18 19 19 18 19 19 18 19 18 19 19 18 18 19 19 20 18 16 21 22 26 26 26 26 24 26 27 28 32 38

GFSNE_925_spd_060.txt.gz
Wind_Speed
6 7 9 7 9 9 10 9 5 2 5 4 4 3 5 9 10 9 9 11 12 12 15 16 17 17 15 13 9 11 10 8 7 6 6 11 14 15
1 2 3 2 2 3 3 4 6 3 2 2 2 5 9 9 12 11 9 5 4 10 14 9 6 5 9 7 15 12 9 8 6 8 11 12 14 16
3 3 2 2 2 2 3 3 2 3 3 3 4 6 6 8 9 8 6 3 2 4 6 9 10 9 7 8 6 7 9 13 15 18 14 15 16 15
4 4 3 2 2 2 2 2 1 2 3 4 2 3 4 7 6 5 4 3 3 5 4 3 2 3 3 3 5 8 9 10 12 13 13 12 12 14
5 5 4 4 4 4 4 3 2 2 1 1 1 2 3 6 4 4 4 4 5 6 6 7 8 8 8 9 9 12 14 13 14 14 16 17 19 17
7 8 7 7 6 6 5 4 3 2 2 2 2 0 1 3 3 4 3 5 5 6 7 7 7 8 9 10 11 12 10 10 11 12 13 17 16 14
9 10 11 11 9 6 5 4 3 2 1 1 2 2 1 1 2 4 5 5 3 6 7 6 6 6 5 6 7 9 11 14 16 17 15 14 14 15
8 8 7 5 5 4 5 5 4 1 1 2 2 2 2 2 2 3 5 5 3 4 8 9 7 7 7 7 11 14 15 16 16 15 15 15 16 16
9 7 5 4 2 2 2 1 4 4 3 0 1 1 2 2 2 3 3 4 5 7 8 6 5 6 6 7 10 11 12 12 11 12 13 14 14 15
8 6 4 4 3 3 2 2 1 3 3 3 2 0 1 2 3 3 5 7 8 5 4 4 5 6 8 7 10 4 5 8 10 10 11 12 13 14
5 3 3 3 1 2 2 1 1 2 2 3 4 5 6 7 6 6 6 5 5 2 3 4 5 10 7 4 4 5 6 6 5 8 9 11 12 13
4 3 3 2 2 2 1 2 3 3 3 3 4 6 5 4 5 3 3 4 3 4 1 5 6 8 6 3 4 8 6 8 8 10 11 10 11 12
5 5 4 4 3 2 3 2 4 3 4 4 4 3 2 1 1 1 2 3 4 5 4 2 4 7 5 8 10 8 9 5 8 9 11 13 15 15
5 5 4 3 4 4 5 4 5 5 5 5 4 4 4 4 4 5 6 6 7 10 10 10 5 6 8 9 9 6 10 12 11 10 9 11 15 18
5 6 5 4 4 5 6 5 6 5 5 6 6 5 5 5 7 7 8 8 9 11 11 11 10 9 9 10 14 15 14 8 15 15 9 10 12 12
7 6 6 5 5 5 6 7 6 6 7 7 7 6 6 6 6 5 6 7 9 10 9 9 11 11 12 15 17 21 16 12 8 13 16 18 16 17
6 6 6 6 6 6 7 7 7 7 8 8 8 8 7 7 7 7 8 9 11 11 10 9 10 12 16 19 20 22 21 19 18 18 16 19 18 17
8 9 9 7 7 8 8 8 8 9 9 9 9 9 9 9 9 9 10 11 13 12 12 10 10 11 13 16 23 25 18 17 15 16 16 18 21 19
13 12 10 9 9 9 9 10 9 9 10 10 10 10 10 10 10 11 12 13 14 14 14 12 11 12 9 9 13 18 20 17 16 19 20 22 24 25
15 13 12 11 11 11 11 11 10 9 10 10 11 11 12 11 12 13 13 14 14 15 16 14 14 15 16 11 14 20 17 21 22 24 24 25 27 28
16 15 13 13 12 12 12 11 12 11 11 11 12 12 13 12 14 14 14 16 16 17 19 19 16 15 19 18 14 21 22 22 25 29 22 22 24 26
17 16 15 15 15 14 14 13 12 13 13 14 13 13 13 13 15 15 15 16 16 17 20 21 19 16 15 17 20 23 24 24 24 25 27 30 24 8
21 19 17 17 16 16 16 16 16 15 14 15 14 14 13 14 14 15 16 16 17 18 18 19 18 17 20 21 23 23 24 26 25 25 25 26 32 39

GFSNE_925_spd_063.txt.gz
Wind_Speed
10 10 10 8 11 10 12 11 5 3 5 5 3 4 2 4 8 7 7 9 8 13 16 15 13 14 11 8 5 8 10 6 11 17 21 15 10 8
4 2 1 2 3 2 3 3 5 3 2 1 3 4 4 6 9 8 8 4 5 8 10 13 12 6 2 3 9 10 11 10 9 7 5 5 6 9
6 5 4 2 1 2 3 3 3 4 4 2 3 4 2 5 8 8 6 4 5 5 5 6 4 6 7 7 7 5 3 3 5 6 6 6 9 10
0 1 1 1 2 2 2 3 2 2 2 4 2 3 5 6 7 5 5 5 4 6 4 5 4 3 3 3 3 3 4 5 7 9 10 10 7 8
3 3 3 3 4 3 3 2 1 0 1 2 1 3 3 7 4 4 4 6 5 7 7 5 7 10 9 9 9 9 9 11 12 12 12 11 12 14
6 6 5 5 5 4 5 4 3 2 2 2 1 1 1 3 4 5 4 6 5 5 7 8 7 7 6 6 8 9 8 8 9 9 10 10 12 13
6 6 9 8 7 5 5 5 4 2 2 1 1 2 2 3 3 4 6 6 4 5 5 4 7 4 5 6 6 6 7 9 11 12 14 14 14 13
8 8 7 5 5 6 7 6 5 3 1 1 2 3 2 4 3 4 5 6 3 6 9 10 8 7 6 6 11 13 13 13 13 12 12 11 11 12
7 7 5 3 3 3 4 4 5 4 3 1 1 3 2 2 4 4 4 5 7 9 11 7 6 7 7 7 11 14 10 10 11 10 9 10 11 12
6 5 3 3 2 3 2 2 3 2 2 2 2 3 2 0 2 3 5 7 9 5 6 4 6 7 9 8 11 8 8 8 7 7 8 8 8 9
4 3 2 2 2 2 1 1 1 2 3 2 3 3 5 6 6 5 5 6 5 1 2 3 5 12 9 7 7 6 11 9 8 6 6 8 9 11
4 3 4 3 2 2 1 2 2 2 3 2 4 5 3 3 3 3 4 4 4 5 1 4 7 8 6 3 5 8 10 9 11 8 9 12 12 13
5 4 3 4 3 2 4 3 3 3 4 3 4 4 2 2 1 3 4 5 5 6 6 3 4 6 5 7 10 8 9 8 11 11 10 11 12 13
5 4 5 6 3 5 7 6 6 5 4 5 5 5 5 5 5 6 7 8 9 12 13 11 6 5 7 8 8 7 10 13 15 15 13 13 13 14
6 5 6 6 6 7 8 9 8 6 6 7 7 6 6 7 10 9 8 8 10 11 12 13 13 12 12 11 12 14 14 7 15 18 16 13 13 14
9 8 6 7 8 7 8 9 10 9 8 9 8 7 7 8 7 6 8 8 11 13 11 13 12 13 14 18 19 23 19 13 12 16 17 21 22 23
8 7 8 9 9 8 10 10 10 10 9 9 8 8 8 8 9 8 10 10 12 13 12 13 13 14 16 20 23 25 25 23 22 22 18 19 20 21
10 10 11 12 11 11 11 10 10 10 11 10 9 9 9 9 10 10 11 13 15 14 13 12 12 13 16 23 26 33 24 22 20 17 18 19 22 21
15 14 13 13 13 13 12 12 12 12 12 14 12 11 11 12 11 13 13 14 16 16 16 14 13 14 9 9 15 15 25 23 20 22 21 23 25 28
18 17 16 15 15 14 13 14 14 13 13 13 12 13 14 14 14 14 14 15 16 16 17 16 16 18 17 13 12 20 17 23 23 25 26 25 28 28
19 20 21 19 17 17 17 17 16 16 14 14 15 15 16 16 17 17 17 16 16 17 18 18 18 16 19 18 19 23 24 22 24 30 28 24 25 25
20 21 20 20 20 19 18 17 17 16 16 18 18 17 17 17 18 17 16 16 16 17 19 19 18 18 19 19 21 24 26 26 25 25 27 32 28 9
24 22 23 22 21 20 19 19 19 18 17 17 17 18 17 18 17 17 17 16 18 17 17 18 18 18 20 21 24 24 26 29 26 25 29 28 29 35

GFSNE_925_spd_069.txt.gz
Wind_Speed
11 10 14 13 13 16 16 16 9 2 4 9 6 6 4 3 2 2 4 4 5 7 9 9 10 11 8 4 2 2 3 2 2 7 17 17 21 16
9 9 9 7 7 7 8 10 11 10 3 4 4 8 5 2 2 6 5 3 2 2 4 7 6 5 6 8 9 7 8 9 7 8 8 12 14 15
9 10 9 7 7 5 3 3 4 5 3 3 6 8 5 2 5 6 4 3 2 0 2 3 4 6 6 6 8 9 9 9 10 9 7 7 7 6
9 9 8 7 8 7 7 7 8 5 6 5 8 6 3 5 4 2 1 1 1 2 1 1 2 3 1 1 2 3 2 2 2 4 5 2 2 3
10 9 10 11 10 9 8 9 8 6 5 5 5 5 2 3 4 3 4 2 4 2 1 3 2 1 2 2 3 3 3 2 2 2 5 6 7 7
8 8 9 8 5 5 5 7 5 3 3 6 4 4 3 2 0 3 5 2 2 0 0 1 2 2 2 2 1 1 1 3 3 3 4 5 6 6
7 6 5 6 6 6 6 6 6 6 6 7 6 5 5 5 2 3 2 1 2 1 2 1 3 2 1 1 3 5 6 5 5 6 7 8 8 9
10 8 7 6 7 5 6 6 6 6 8 7 6 5 4 5 4 3 1 1 2 2 6 6 0 1 1 1 4 6 7 5 6 7 9 9 9 11
11 11 8 6 5 8 8 7 7 4 5 9 7 7 7 5 6 4 2 2 2 4 6 0 1 1 1 2 4 5 3 3 4 3 3 4 4 6
11 9 6 6 5 4 6 6 5 4 3 3 5 4 3 3 4 2 2 2 4 2 1 2 3 3 6 4 1 3 4 4 5 5 3 1 3 3
10 9 6 6 5 4 5 6 5 4 3 3 3 2 3 4 5 5 5 3 2 1 1 3 2 7 5 1 2 1 3 4 5 5 2 1 4 4
10 7 5 7 6 5 6 5 6 7 5 2 3 3 3 3 3 4 5 4 4 1 1 3 3 5 3 1 2 4 6 4 4 3 5 5 6 9
10 10 10 8 7 6 4 5 4 5 4 3 3 3 4 3 3 2 3 5 7 5 3 3 2 2 2 4 6 4 2 3 7 8 10 10 8 7
10 9 8 9 8 7 6 4 4 5 5 5 4 5 6 5 4 4 5 5 6 7 8 9 5 5 6 4 6 4 9 12 8 8 11 8 9 10
10 9 9 9 7 7 7 6 7 8 6 6 7 7 6 5 7 9 9 10 8 7 7 7 8 9 9 8 7 11 13 6 11 3 11 19 18 16
10 10 10 9 8 7 6 7 9 9 9 9 9 8 7 8 8 9 8 6 8 7 4 5 9 11 13 14 13 16 15 10 13 21 18 16 15 14
14 12 12 11 11 10 10 9 10 10 10 11 11 11 11 10 11 8 9 8 11 11 14 10 8 11 15 17 20 21 23 22 22 20 18 18 19 16
17 17 16 14 13 12 11 10 11 11 11 11 12 12 13 13 12 10 11 12 14 15 16 13 10 11 12 15 19 25 21 20 22 20 19 19 24 25
20 19 17 16 15 13 13 12 14 13 11 14 15 16 15 15 14 14 14 14 17 18 18 15 13 13 4 6 11 13 20 18 15 19 23 23 25 32
22 21 21 19 17 16 15 14 15 13 14 15 16 16 16 17 17 18 17 17 18 19 20 16 15 16 16 10 12 20 21 25 26 28 28 29 28 28
26 25 24 21 20 18 17 15 16 16 15 16 17 17 17 16 17 17 17 15 14 17 18 17 14 11 14 14 13 22 27 22 19 22 25 24 23 23
26 26 26 24 22 21 18 18 18 18 18 17 19 18 17 16 18 18 18 19 18 19 21 18 14 15 16 16 19 21 25 24 23 23 24 25 23 8
29 29 28 26 23 22 20 18 19 20 18 19 19 20 18 17 18 19 20 19 18 17 17 18 19 17 19 19 20 21 23 24 24 25 30 25 25 28

GFSNE_925_spd_072.txt.gz
Wind_Speed
13 13 16 16 19 19 18 16 11 3 4 8 6 11 10 8 6 3 3 4 4 4 5 5 4 4 14 8 4 1 3 3 1 5 13 23 26 19
12 13 13 13 12 11 12 14 13 9 3 5 5 12 12 8 4 2 5 8 2 1 1 3 3 2 2 5 6 4 8 8 9 13 11 12 13 11
13 13 13 11 11 11 7 6 7 8 3 3 6 11 10 6 3 3 7 6 2 1 2 2 1 1 2 1 2 4 5 5 4 5 5 6 8 8
12 12 12 10 11 11 9 7 6 5 2 4 9 9 7 5 3 5 4 2 2 3 0 2 4 4 1 1 1 2 2 4 5 6 7 7 4 4
10 10 12 10 11 10 9 9 7 8 5 6 7 8 5 4 3 5 5 4 4 3 2 1 1 0 2 0 2 3 2 2 3 4 3 4 4 4
10 10 12 11 12 10 7 6 7 7 6 6 5 5 4 4 2 4 6 5 4 3 4 4 2 2 1 1 0 1 2 3 2 3 4 6 6 7
9 9 7 5 6 7 6 6 8 7 6 8 5 3 5 5 6 7 7 5 5 4 4 6 5 4 3 3 2 4 5 5 5 5 5 5 5 6
9 8 6 6 5 4 5 5 7 8 9 9 8 6 7 7 7 7 5 4 3 5 2 4 2 2 3 3 2 5 5 2 3 6 8 8 8 8
10 10 9 8 6 6 6 6 2 5 9 10 10 8 8 8 8 7 6 5 3 3 3 2 2 1 3 2 2 3 2 2 3 3 2 4 5 6
11 11 9 8 8 7 5 6 4 3 3 3 5 6 5 6 6 5 5 4 3 3 1 1 2 2 4 4 4 1 2 4 4 3 2 1 0 1
12 12 9 8 6 6 7 6 6 4 3 2 3 3 3 3 5 5 5 4 3 4 2 0 1 2 2 4 7 4 3 1 3 3 1 1 3 4
14 12 10 9 8 7 7 6 7 6 6 4 4 4 3 4 6 6 7 7 4 2 3 1 1 2 1 4 5 5 5 5 4 5 3 3 3 6
14 13 11 9 9 7 6 6 6 6 7 5 5 4 4 5 4 3 4 5 6 3 3 1 2 2 2 3 4 6 5 5 5 7 8 8 7 6
15 12 11 11 10 9 7 5 6 6 7 6 5 5 6 6 5 4 3 4 4 4 5 5 3 3 4 4 6 3 6 10 12 8 9 8 6 8
12 12 11 11 10 9 9 8 9 10 7 7 7 6 5 5 5 7 6 7 8 6 6 7 6 7 8 7 5 10 10 2 12 7 6 17 15 13
11 11 11 12 12 11 10 10 12 12 11 10 9 7 7 8 7 6 7 7 8 7 7 4 6 9 13 16 16 18 15 8 7 14 17 16 14 12
14 13 14 14 14 14 13 12 12 12 13 11 10 9 8 8 8 8 9 8 8 6 8 7 8 11 13 16 18 20 20 20 19 16 15 18 18 14
18 19 20 18 18 17 17 16 14 14 14 13 14 13 12 11 9 9 10 12 12 12 12 12 10 9 9 13 18 23 18 18 13 12 12 14 24 22
22 23 24 22 21 20 18 17 17 15 13 14 14 15 13 12 11 12 12 12 13 13 13 12 11 10 3 4 9 15 20 17 13 16 21 22 25 30
25 22 26 25 22 21 19 18 16 16 16 15 17 16 15 14 13 14 14 15 15 14 14 13 14 15 16 7 7 13 11 19 22 26 26 26 25 26
25 27 27 25 24 22 21 19 18 18 17 17 18 17 16 16 16 16 14 12 12 13 15 17 14 12 12 13 13 17 17 16 17 20 23 21 19 17
27 28 28 28 27 24 22 21 20 19 20 19 19 18 16 17 18 17 14 14 16 17 19 18 13 10 13 15 18 21 24 20 17 19 21 22 19 7
29 27 28 29 27 25 25 24 24 24 22 20 20 18 17 18 17 16 17 17 17 17 18 16 14 13 18 19 19 21 22 27 26 25 27 21 21 25

GFSNE_925_spd_075.txt.gz
Wind_Speed
14 13 14 13 13 16 16 17 8 3 3 8 7 13 12 10 10 7 6 6 4 6 6 4 4 4 8 14 8 7 6 6 3 6 11 17 25 24
13 12 13 13 13 13 10 13 14 13 5 5 8 10 13 12 10 7 4 4 4 3 0 0 1 4 4 6 5 2 2 3 8 10 8 10 13 16
13 13 13 13 12 11 9 10 8 8 5 4 6 10 13 11 8 5 4 5 8 3 4 3 2 1 0 1 1 1 2 3 8 8 13 16 15 11
13 13 13 11 11 11 10 10 9 7 3 4 6 12 8 9 6 4 3 7 5 3 3 4 4 1 1 2 2 2 2 2 3 3 2 8 8 7
11 11 9 9 9 9 8 8 7 6 4 5 7 12 7 9 7 5 5 5 5 4 3 2 1 2 2 3 4 4 2 2 2 2 3 3 4 5
9 8 10 11 11 10 9 9 7 7 9 6 7 7 7 8 6 5 5 5 6 5 4 4 4 2 2 0 2 3 3 4 3 2 3 3 4 4
9 9 10 9 9 8 8 10 10 11 8 9 6 6 7 6 7 6 8 7 6 5 5 6 6 6 5 5 4 5 5 5 5 6 5 4 4 5
12 10 9 7 7 7 9 9 8 7 8 8 7 5 6 5 7 8 7 5 3 6 4 6 5 5 5 5 4 4 4 1 2 6 7 6 7 6
12 10 8 7 6 6 5 6 6 8 9 10 10 9 8 8 9 8 8 6 3 3 3 4 4 4 5 5 4 3 1 2 2 2 1 4 6 6
11 10 9 8 7 7 5 5 3 2 2 5 7 7 5 7 7 6 7 6 4 3 3 3 5 4 6 6 6 3 2 3 3 2 2 1 1 1
11 10 9 9 8 7 7 6 5 3 3 4 5 5 4 5 4 5 6 6 3 4 5 3 3 3 4 6 9 7 5 2 1 2 1 2 2 4
11 11 10 7 6 5 6 7 7 6 5 4 5 5 4 4 4 5 6 7 4 3 6 3 3 1 2 5 7 8 6 5 5 5 4 3 3 6
13 13 11 9 9 7 6 7 7 5 7 6 5 4 4 4 4 3 4 5 5 3 4 3 3 2 2 2 5 8 7 7 7 7 8 8 7 6
13 11 10 9 10 8 8 5 4 6 7 6 4 4 5 6 5 5 4 3 3 4 4 4 2 3 2 3 4 3 6 9 10 11 10 8 9 9
11 11 10 11 10 10 9 9 8 10 7 8 8 7 7 6 8 8 6 5 5 6 7 8 8 8 8 6 4 6 7 3 8 13 11 11 14 14
12 10 10 11 12 12 11 10 12 12 12 10 10 8 8 9 9 8 7 6 7 7 7 7 6 8 11 13 14 17 16 10 3 3 12 19 17 15
15 11 12 14 15 14 13 13 13 13 14 13 11 11 10 10 10 11 9 8 7 4 5 5 7 10 13 15 17 19 20 20 17 17 17 18 19 16
17 18 18 19 18 18 17 16 16 15 16 15 15 14 13 13 12 12 11 11 12 11 9 9 9 9 10 11 16 22 16 16 12 8 10 14 22 20
22 20 23 23 23 22 20 19 19 18 15 15 15 16 16 15 13 14 14 13 13 13 12 10 10 9 2 3 8 12 16 15 13 12 13 18 27 30
23 21 25 26 26 24 22 21 20 17 17 17 17 18 17 18 18 18 17 16 15 14 13 12 13 14 15 7 5 9 8 15 17 21 24 23 24 28
26 26 28 27 25 23 22 21 20 19 19 19 19 19 19 19 21 19 17 15 14 14 15 15 13 10 12 13 10 12 16 13 15 19 21 20 18 17
28 29 29 28 26 24 23 22 22 21 22 21 20 20 20 20 20 19 18 17 17 18 20 18 15 11 14 16 16 15 18 17 15 17 20 22 18 6
26 29 28 27 25 25 24 23 24 24 24 23 21 20 20 20 19 18 18 18 17 18 17 17 15 12 16 18 17 18 20 19 18 22 26 19 19 24

GFSNE_925_spd_078.txt.gz
Wind_Speed
11 11 13 12 12 11 11 14 6 3 3 8 8 13 14 13 12 10 8 6 6 6 4 3 2 2 4 8 8 6 5 7 11 4 8 13 18 27
9 10 10 10 11 11 13 11 11 12 5 4 9 10 14 13 12 9 9 7 5 4 3 4 1 5 4 5 5 3 2 5 8 7 8 3 8 17
9 10 11 11 11 10 10 10 10 11 6 5 8 10 13 13 11 10 7 5 5 4 6 5 4 3 3 2 1 1 2 3 6 12 14 17 12 12
9 10 11 10 9 9 9 11 10 9 5 3 6 9 11 11 9 8 6 5 6 7 6 6 4 1 4 2 1 1 1 2 1 4 7 14 14 12
9 9 9 8 7 8 8 8 9 8 7 6 7 8 10 12 11 9 8 5 5 6 4 3 3 3 3 4 4 2 0 1 2 4 4 6 7 9
7 7 6 8 10 11 11 10 10 9 8 6 7 8 10 9 11 9 7 7 8 7 6 5 4 2 2 1 2 5 6 4 2 3 4 5 4 4
9 8 8 9 10 9 9 9 9 9 9 9 8 7 7 7 10 7 8 8 8 8 8 7 6 6 6 4 3 4 4 5 7 5 5 7 8 7
10 10 8 7 7 7 7 10 10 9 10 10 10 7 9 8 8 8 8 6 3 8 6 6 6 7 6 5 4 4 4 2 3 5 6 6 7 6
8 10 9 7 6 5 6 5 5 7 8 9 8 9 7 9 8 9 9 6 3 3 3 4 5 5 5 5 4 2 1 2 2 1 3 5 5 6
8 9 9 8 6 6 5 4 3 1 3 8 9 10 7 7 7 7 7 6 4 5 4 2 4 4 6 5 5 3 2 2 1 2 3 3 3 3
8 10 10 9 7 8 7 6 4 2 1 2 4 4 4 5 4 5 6 6 3 3 4 2 2 3 4 5 7 7 5 2 1 3 2 1 2 3
9 10 10 8 8 8 7 7 7 6 6 4 5 5 5 4 4 5 6 7 4 1 6 4 3 1 1 3 7 8 6 6 5 5 3 3 4 5
13 12 11 10 9 8 8 6 6 6 8 7 5 5 5 6 4 4 5 7 7 4 4 6 4 3 1 1 4 7 8 8 8 8 8 7 7 7
13 12 12 11 11 11 9 5 6 7 9 8 7 7 7 6 5 5 5 5 5 6 6 6 3 5 3 0 2 3 7 10 11 11 10 10 10 10
11 10 11 11 11 12 11 9 7 9 8 9 8 7 6 5 7 8 7 5 6 7 8 8 8 7 6 4 2 3 6 4 7 11 13 12 12 12
12 10 11 12 13 14 13 11 11 12 12 10 8 6 6 7 8 9 9 7 8 9 8 7 6 6 6 8 10 13 13 8 3 3 7 12 15 16
16 13 14 14 15 16 15 14 14 13 14 13 11 9 8 8 9 10 9 8 8 3 4 6 6 7 9 11 13 15 16 18 16 15 17 21 20 16
19 20 19 18 19 20 18 15 15 14 15 14 14 12 11 11 10 11 12 12 13 11 10 9 8 7 8 9 13 18 16 15 11 7 10 16 22 13
23 22 23 22 22 22 20 18 17 17 15 16 16 15 14 13 13 13 14 14 15 14 13 11 10 9 2 2 6 11 14 12 10 10 11 14 23 27
22 20 21 23 25 23 21 20 19 17 17 17 18 17 16 16 16 18 17 17 17 16 15 14 15 15 12 5 3 7 10 14 15 18 19 18 22 27
22 24 26 26 24 22 21 19 19 19 18 18 18 18 17 18 19 19 19 17 16 17 19 19 17 11 12 12 9 13 17 13 14 15 18 16 17 16
26 26 28 28 25 22 20 19 19 19 19 19 20 20 19 19 19 20 20 20 21 21 20 16 12 11 14 16 19 17 18 18 16 14 16 19 15 6
27 28 27 27 25 23 22 20 20 21 21 21 22 22 20 20 20 20 20 19 19 19 18 18 16 14 17 18 17 20 20 19 17 20 24 19 19 24

GFSNE_925_spd_081.txt.gz
Wind_Speed
8 8 9 9 10 10 12 12 8 4 2 7 6 9 11 12 13 11 9 9 10 9 7 9 8 4 1 2 3 3 5 5 4 6 8 14 19 19
8 8 8 8 7 9 10 11 11 10 4 3 8 10 9 12 12 12 11 9 7 5 3 6 6 2 1 1 1 3 3 5 5 6 9 4 12 17
8 8 8 8 8 9 10 11 11 12 10 7 9 12 12 13 12 11 10 9 7 4 4 6 5 3 1 3 3 3 3 1 4 11 11 11 8 7
7 7 7 8 7 8 9 11 11 12 9 6 6 7 10 12 12 10 9 8 5 3 2 7 6 5 4 1 5 4 3 2 3 1 6 13 16 20
6 6 7 6 7 6 7 8 9 10 10 8 6 7 9 11 12 11 10 7 4 4 4 4 2 5 5 4 4 3 2 2 1 1 1 4 11 14
4 3 4 5 5 7 9 10 10 10 10 9 8 8 9 9 12 12 9 8 6 5 7 6 6 3 2 1 2 4 6 4 2 3 4 5 6 6
4 5 5 5 7 8 9 9 9 10 10 9 7 6 7 7 10 9 9 7 6 8 8 8 8 7 7 5 4 4 4 6 6 5 4 4 6 5
4 7 8 7 6 7 8 8 9 10 11 10 11 8 11 9 9 9 7 5 3 10 8 8 8 8 7 6 4 4 5 4 4 6 7 7 6 6
6 5 9 9 8 7 6 5 6 8 9 10 10 10 8 10 9 10 9 6 4 4 5 4 7 6 6 6 4 2 1 2 1 1 4 6 5 5
8 8 10 10 9 8 7 6 6 5 6 9 10 10 10 9 10 9 9 8 7 6 5 3 4 4 5 5 4 3 2 2 1 3 3 2 3 3
9 11 12 12 10 9 9 8 7 5 3 2 3 7 8 8 8 9 10 9 5 4 7 4 3 4 4 6 7 7 5 2 2 3 3 3 3 3
10 11 12 12 11 11 10 10 9 9 8 7 6 6 6 6 7 7 8 9 4 3 8 7 5 5 3 4 7 9 7 6 6 5 4 4 4 4
14 14 14 13 11 11 11 9 9 8 9 8 7 6 6 7 5 5 7 8 7 3 6 8 5 6 3 3 5 8 9 9 10 9 8 7 7 7
15 15 15 14 13 13 12 8 8 8 11 10 8 7 7 7 6 5 5 5 5 5 6 7 3 5 5 2 2 4 8 10 11 11 10 10 10 10
13 14 15 16 14 14 14 10 10 10 11 10 9 8 6 6 8 8 7 5 4 4 5 7 6 5 5 4 2 3 2 5 7 9 11 12 13 13
14 14 14 15 16 16 15 14 14 13 12 11 9 7 8 9 10 10 9 7 5 5 7 7 7 7 7 8 8 9 10 5 3 4 5 10 12 15
17 16 15 16 17 18 18 18 16 14 15 14 11 10 10 10 10 11 10 9 6 3 4 7 8 8 9 11 10 12 11 11 12 14 15 17 18 17
22 21 18 18 19 20 20 19 18 17 17 16 14 13 13 13 11 12 12 11 8 7 6 6 7 6 7 10 15 14 9 9 9 9 10 12 15 12
22 21 20 23 22 23 22 22 20 19 17 17 17 16 15 14 13 14 13 12 10 10 10 10 10 8 5 3 5 10 10 9 7 8 9 11 16 16
23 21 21 23 25 24 24 22 21 19 18 19 19 19 18 18 18 16 15 15 12 10 10 12 14 14 9 4 3 6 8 11 10 9 10 12 19 24
24 22 26 25 26 25 25 23 22 22 21 21 21 20 20 20 20 19 17 16 14 13 11 13 15 11 13 12 9 9 11 12 14 14 13 11 12 13
26 26 28 27 25 23 21 20 21 20 21 21 22 21 21 22 23 20 18 17 16 14 14 12 8 10 12 12 14 12 12 12 12 14 15 17 11 6
27 28 28 28 26 24 23 21 21 21 21 22 21 21 22 23 22 21 18 17 16 15 16 12 10 10 12 14 16 15 15 14 12 14 17 18 20 26

GFSNE_925_spd_084.txt.gz
Wind_Speed
18 16 14 11 11 9 8 9 9 3 5 7 6 4 4 5 8 9 9 8 8 8 8 8 8 9 3 3 5 4 5 7 7 8 12 14 20 24
16 13 12 9 8 7 8 10 12 12 5 5 4 6 7 6 9 10 11 9 7 7 6 6 7 6 3 3 2 4 4 6 8 10 11 11 12 17
15 12 11 10 7 8 8 9 10 11 11 8 10 10 10 10 10 11 10 10 9 7 5 5 5 5 4 3 2 3 5 5 4 6 8 10 9 10
14 13 11 10 10 9 9 10 11 10 11 9 9 9 9 9 10 10 10 9 8 6 3 3 4 4 5 5 3 3 5 4 4 5 7 7 16 9
14 13 11 10 10 9 9 10 9 11 11 7 5 7 9 8 9 10 10 9 8 6 3 3 3 4 4 6 5 3 3 3 4 4 3 4 5 16
12 11 10 10 10 10 10 10 9 9 9 8 8 7 8 7 9 11 11 11 9 7 6 7 5 6 7 7 4 4 6 6 3 3 2 1 2 5
9 9 10 10 11 9 9 11 10 10 8 8 6 5 6 6 8 9 11 10 10 9 6 6 5 5 5 6 4 4 5 7 7 7 5 4 3 2
10 8 8 11 12 13 13 12 10 9 8 8 7 7 8 8 10 10 9 6 4 7 6 8 8 6 7 6 6 5 5 5 5 6 5 5 5 5
12 12 11 13 13 10 9 9 9 9 10 9 9 9 8 11 10 10 11 8 5 4 5 6 6 6 7 7 6 3 2 0 1 2 5 5 4 4
15 13 14 14 14 13 10 8 5 5 7 8 8 7 9 7 9 8 7 6 4 6 7 3 5 5 6 6 6 4 3 1 1 2 2 3 3 3
12 13 12 14 14 13 11 9 6 5 5 5 7 9 11 11 9 7 7 7 5 5 8 3 4 4 4 4 5 7 5 3 3 3 3 4 3 4
9 11 15 14 14 13 12 11 10 9 8 6 4 4 5 6 8 6 6 7 4 3 5 5 5 4 2 4 5 7 6 7 7 5 4 3 2 3
10 11 12 15 16 16 14 11 10 9 9 7 6 5 5 6 4 6 6 7 5 3 3 6 4 3 1 1 3 7 9 8 8 8 7 6 7 6
12 11 12 18 17 15 15 10 11 10 9 9 8 7 7 7 6 6 6 6 6 6 6 9 2 5 3 1 2 4 7 9 9 9 9 9 10 10
13 13 14 16 16 14 15 12 12 10 10 10 10 8 7 7 9 7 6 5 4 4 6 6 6 5 5 2 2 3 3 6 9 10 10 10 11 12
19 15 14 16 15 14 15 16 13 12 11 10 9 8 8 9 8 8 6 6 4 4 6 7 8 7 5 6 6 6 6 3 5 7 8 7 9 11
21 16 15 15 16 16 16 16 15 14 12 10 10 10 9 9 8 8 7 7 5 4 4 5 7 8 8 9 6 8 8 8 9 10 11 11 12 13
21 20 18 18 18 18 18 18 17 16 14 13 12 12 11 11 10 10 9 8 7 6 6 5 4 3 4 8 13 10 8 8 7 8 8 8 10 9
22 22 21 21 20 19 19 19 19 18 19 18 17 16 16 13 13 10 10 9 9 8 8 8 7 7 5 4 2 7 8 5 6 6 7 9 11 12
24 23 23 23 22 20 20 20 18 17 21 20 19 19 18 17 14 13 12 11 10 9 9 9 10 11 10 5 3 4 7 9 8 9 10 12 16 19
26 24 24 23 24 22 21 23 22 22 23 22 21 21 21 20 16 15 14 14 11 10 11 12 12 11 11 11 7 8 7 10 14 13 8 9 13 13
24 26 25 27 26 25 23 24 24 22 23 23 23 22 22 22 21 18 15 13 14 13 12 9 10 10 11 10 12 12 10 9 11 13 17 16 9 6
27 28 26 28 27 26 25 24 24 24 24 24 24 23 23 22 21 21 18 15 12 12 12 11 9 10 11 12 13 14 13 12 11 12 14 16 21 26

GFSNE_925_spd_087.txt.gz
Wind_Speed
22 20 18 16 17 16 15 13 9 2 3 6 5 4 4 3 5 4 6 6 7 8 8 8 8 8 8 6 7 7 6 7 8 9 12 14 14 17
22 19 16 16 14 15 15 14 13 10 3 5 3 4 4 4 6 5 8 8 7 6 7 7 7 7 7 6 5 6 6 6 8 10 13 14 16 11
20 18 17 14 13 13 13 13 14 14 9 7 7 8 7 7 9 8 9 9 9 8 7 7 6 5 6 7 8 3 4 7 8 7 10 11 14 16
21 19 16 13 13 12 13 12 13 13 12 10 8 9 9 8 10 8 8 8 8 8 7 7 5 6 7 8 10 5 5 6 6 6 8 10 12 18
20 18 17 15 15 14 14 11 12 12 11 8 5 8 9 8 8 8 9 9 9 8 6 4 4 5 6 8 9 6 4 4 4 5 6 8 9 18
16 16 15 17 15 13 14 13 13 12 11 9 9 7 8 8 9 9 9 11 11 10 9 8 7 5 7 7 8 6 6 7 6 4 5 6 7 8
15 15 15 14 15 16 16 12 12 12 10 9 8 7 7 8 8 7 10 11 12 11 10 8 6 6 7 7 7 6 6 7 7 6 5 4 3 5
15 13 13 14 15 16 15 13 11 10 10 10 9 9 10 10 11 10 10 6 3 9 10 8 10 9 9 7 9 7 6 6 6 6 6 6 4 2
14 15 14 11 12 12 13 11 10 13 12 8 10 12 11 15 11 11 12 8 4 5 8 5 8 8 10 9 7 5 3 3 3 2 2 2 2 2
17 16 14 13 14 12 10 10 9 8 8 11 11 8 11 9 11 9 9 9 6 7 8 4 5 4 6 4 5 5 2 1 1 2 2 2 2 2
16 16 13 11 12 14 12 10 8 8 9 10 12 11 10 9 9 8 10 9 5 5 7 6 3 5 3 3 4 5 3 2 1 3 4 5 5 5
13 14 14 13 14 16 15 14 13 13 11 7 6 6 7 10 11 10 9 11 5 4 6 7 5 5 2 4 6 5 5 4 5 4 3 2 3 3
13 13 14 17 16 19 17 15 13 12 12 10 8 7 8 5 8 10 10 11 10 3 4 9 6 5 3 3 5 7 7 7 7 7 7 4 3 3
21 17 17 18 20 19 18 14 13 14 14 12 11 11 10 11 9 8 9 10 10 8 7 10 5 7 6 4 3 5 7 8 8 8 8 7 6 7
19 15 15 16 19 18 17 16 15 16 16 14 14 12 13 12 11 10 9 8 7 7 7 9 8 7 7 5 3 3 3 5 8 9 10 10 9 9
22 19 17 16 18 20 19 18 18 18 16 15 14 13 14 15 14 12 10 10 7 6 7 8 8 7 6 7 7 6 6 3 4 7 8 9 8 8
27 22 18 19 21 21 20 22 20 17 16 15 14 16 15 15 14 13 11 11 7 10 7 7 8 8 9 8 7 8 8 8 7 9 9 10 11 11
24 22 21 21 20 21 20 20 23 20 20 18 17 18 18 17 17 15 14 13 11 10 10 8 6 4 2 5 12 11 8 8 7 8 8 8 10 8
23 22 22 23 22 21 22 23 22 22 20 21 22 22 20 18 16 16 15 14 12 11 11 10 10 8 3 2 2 5 11 7 8 8 8 9 11 12
25 23 22 23 24 25 26 24 22 23 24 24 23 23 22 21 19 17 17 16 14 13 12 13 13 13 9 4 3 4 7 11 9 8 8 10 14 16
25 24 25 26 26 27 26 25 25 25 27 27 25 24 23 23 20 19 18 16 14 15 15 16 15 10 13 12 5 6 9 9 12 13 7 8 10 9
25 24 26 26 27 28 27 25 26 24 25 27 26 25 24 24 22 21 21 20 19 18 16 11 11 13 15 13 13 9 8 9 10 10 13 15 8 4
25 24 25 28 29 29 28 28 26 27 28 28 27 26 25 24 24 22 21 21 19 18 16 14 13 14 15 14 12 10 9 12 13 13 13 14 14 20

GFSNE_925_spd_093.txt.gz
Wind_Speed
28 27 26 19 21 21 18 20 13 4 5 10 9 13 12 9 8 8 7 7 8 9 10 11 11 9 7 8 8 5 6 7 10 12 12 14 17 19
27 24 22 22 28 24 22 23 24 16 3 10 7 15 14 11 10 7 7 7 7 9 10 8 8 9 7 8 7 7 7 10 7 8 10 13 15 18
29 28 27 28 26 23 23 24 23 20 7 5 9 14 14 12 9 7 8 8 8 9 10 9 9 10 8 6 6 7 10 10 8 7 10 12 13 16
30 29 30 28 27 27 26 26 24 21 16 10 12 14 13 13 11 9 8 9 10 11 11 10 9 10 7 7 7 9 9 6 7 7 9 10 13 15
32 33 33 30 30 28 27 26 23 21 19 13 11 13 12 14 12 12 11 11 11 12 12 9 9 8 8 7 7 9 8 8 7 8 10 10 11 13
30 30 30 31 32 30 27 26 24 22 20 18 14 13 13 12 14 13 11 13 14 14 12 12 10 8 8 8 7 7 7 8 6 9 10 10 9 11
22 22 23 26 26 25 25 25 24 24 23 21 15 12 12 10 14 12 15 14 13 13 12 12 11 10 10 10 9 8 8 9 8 8 10 10 7 8
20 19 19 22 22 23 24 24 26 27 26 23 18 13 18 17 15 15 14 9 4 10 12 12 12 12 12 11 9 8 10 7 9 8 5 6 5 4
22 23 22 22 22 22 21 22 23 24 23 25 22 21 18 20 18 16 16 12 9 7 13 7 10 11 11 10 10 8 7 7 6 4 2 2 2 2
21 23 25 24 23 23 23 22 21 22 22 22 21 19 18 15 17 18 17 14 9 8 10 3 7 8 8 11 11 7 5 4 3 2 3 3 5 4
20 21 24 24 24 25 25 24 22 21 19 18 16 16 15 14 15 16 16 18 6 10 13 9 9 7 7 9 9 7 6 4 4 3 4 3 3 3
22 23 24 24 23 23 26 25 25 24 20 17 15 14 15 15 16 18 17 20 11 5 14 11 9 8 2 7 9 9 8 6 6 4 2 2 3 3
27 28 28 26 24 25 25 25 28 22 20 16 15 15 16 17 18 19 17 19 19 11 8 15 12 12 3 3 9 11 11 10 9 6 5 4 2 2
28 30 30 26 27 25 25 23 21 20 22 20 18 18 19 19 19 18 16 17 16 17 10 15 6 14 9 6 4 11 12 11 11 10 8 5 4 3
29 30 28 24 27 25 26 25 22 23 25 24 24 25 23 19 18 17 16 14 13 13 13 15 17 9 12 6 5 7 8 11 12 10 9 8 7 6
30 28 23 22 26 27 26 26 26 29 29 28 26 23 21 21 21 19 17 15 14 13 14 15 12 10 15 11 7 8 8 3 10 9 8 7 7 6
23 24 22 22 24 25 28 28 31 30 29 28 25 25 25 26 25 21 18 19 12 15 15 15 13 13 11 11 10 11 11 10 8 6 6 6 6 7
19 18 20 22 22 23 25 25 30 31 31 30 28 29 28 28 27 24 21 23 20 16 18 17 16 10 7 10 13 9 12 13 11 9 7 6 5 6
20 18 19 23 24 24 24 26 25 28 28 29 29 29 29 28 24 26 25 23 22 18 17 17 17 13 3 2 2 14 14 11 11 10 8 7 5 3
20 18 20 21 24 26 28 27 26 27 30 29 28 29 29 28 25 24 26 22 23 22 17 17 17 19 11 5 3 5 12 14 14 12 10 8 8 11
19 19 21 23 26 28 28 28 29 29 29 29 28 31 31 30 26 25 26 22 22 22 18 21 21 13 14 7 4 4 8 10 11 9 7 9 8 8
19 19 21 25 28 28 30 29 28 27 28 30 29 28 30 32 27 27 27 24 21 21 18 17 15 16 16 16 12 6 4 7 9 10 10 11 7 4
19 20 21 24 27 29 31 30 30 28 29 29 29 29 29 30 29 30 28 26 22 20 21 18 16 19 18 15 12 12 11 11 10 12 12 11 12 14

GFSNE_925_spd_096.txt.gz
Wind_Speed
30 29 29 27 27 25 26 28 18 5 5 10 9 17 16 13 10 8 7 8 9 12 12 11 11 11 11 9 10 11 12 11 10 12 13 14 15 18
24 24 28 30 26 24 21 19 19 4 3 9 8 18 19 16 12 10 9 9 9 10 11 11 11 8 10 10 11 11 9 11 12 12 11 12 13 16
27 26 27 21 23 26 25 25 22 19 6 5 11 16 19 18 16 13 9 9 10 9 9 9 11 10 10 10 10 9 9 12 9 10 12 14 15 16
30 28 29 27 28 31 31 27 24 26 15 9 14 16 17 18 15 13 9 9 10 11 12 12 11 9 9 10 8 8 9 9 9 8 9 10 12 15
32 32 32 32 31 31 34 31 27 26 23 15 11 16 13 20 17 14 13 13 12 12 13 13 12 9 10 10 9 8 8 8 9 10 10 11 10 12
30 31 32 33 33 33 35 33 30 27 25 19 16 15 16 16 20 18 14 16 15 15 15 16 14 12 9 12 10 9 9 7 10 10 10 11 9 9
25 29 31 30 31 33 32 33 31 29 25 23 13 11 14 13 20 16 18 17 15 18 17 17 16 14 13 14 11 10 9 8 10 10 11 10 8 7
22 24 25 26 27 26 28 29 32 32 28 22 16 12 16 21 21 22 17 8 4 14 18 16 15 15 15 14 11 10 10 8 8 8 7 5 6 6
21 22 22 23 23 23 23 23 23 26 27 30 24 26 21 26 22 20 18 16 11 8 17 9 12 13 13 11 10 9 9 8 6 6 3 2 1 2
20 21 22 24 24 24 24 25 26 26 29 28 26 27 25 20 20 22 22 20 12 10 13 6 9 9 13 12 12 11 9 6 3 1 4 2 2 2
22 22 23 25 24 23 23 23 23 24 24 22 20 20 19 18 21 22 21 20 6 9 15 8 7 9 10 12 12 11 9 6 4 3 3 2 1 1
24 22 23 25 26 27 27 27 26 26 23 22 19 18 17 18 19 23 24 21 9 5 15 12 9 8 3 10 12 12 12 9 6 6 3 3 0 2
24 25 25 24 25 26 28 30 31 29 24 22 21 20 20 21 21 21 21 21 19 9 7 18 11 12 5 3 9 12 12 9 10 8 5 2 2 1
23 25 26 27 26 26 28 28 26 23 26 25 24 24 24 24 23 20 20 18 17 18 15 18 6 16 10 6 5 12 13 13 12 9 6 6 5 3
16 27 28 25 24 28 30 28 24 25 30 29 28 27 27 24 22 20 18 17 16 16 17 17 20 12 13 6 5 8 10 14 13 10 8 9 8 7
22 18 27 27 22 24 28 29 29 30 31 27 26 25 23 23 24 22 19 18 16 14 16 17 19 16 15 14 8 10 11 5 12 11 10 10 9 8
24 18 17 20 20 21 24 27 30 30 27 27 27 26 27 25 25 23 20 21 12 18 16 16 15 14 13 15 12 10 14 8 5 10 9 8 7 7
24 15 15 18 19 22 21 21 25 29 27 29 27 27 28 28 26 25 22 21 20 17 21 20 17 13 11 11 14 11 14 11 11 10 8 7 7 8
18 15 14 17 19 21 21 24 23 27 27 27 26 26 24 27 23 24 24 22 21 19 19 19 21 15 3 3 6 18 14 13 14 12 11 8 4 6
17 17 16 17 20 20 23 23 24 24 28 27 26 27 25 25 22 22 23 21 20 19 18 19 22 24 12 5 5 8 18 15 15 13 11 9 8 8
16 17 17 17 21 24 26 27 27 26 26 27 27 29 29 26 21 23 24 20 19 22 18 21 25 21 16 9 4 5 10 13 12 11 9 9 6 5
17 18 17 18 20 23 25 27 25 26 29 30 28 29 30 30 24 23 23 21 19 21 18 21 18 18 20 15 8 7 9 11 11 10 10 10 5 4
17 20 19 18 19 22 25 26 27 26 28 28 27 28 30 29 26 26 25 23 20 19 21 19 20 21 19 19 13 10 9 10 10 11 12 12 10 10

GFSNE_925_spd_102.txt.gz
Wind_Speed
19 19 20 22 22 26 24 23 14 7 9 15 18 30 33 32 30 25 19 16 16 19 22 19 17 16 13 10 9 11 11 8 5 7 9 7 9 11
31 25 25 26 27 31 28 26 25 24 14 20 28 24 36 34 29 23 19 18 19 20 20 18 17 14 12 11 13 12 11 8 6 8 7 6 8 11
28 27 27 28 26 27 28 29 28 24 12 4 16 20 28 33 30 24 22 20 20 20 17 17 14 14 14 14 12 10 9 8 7 7 6 6 9 10
24 25 27 27 31 28 27 28 27 26 19 8 14 18 23 28 27 25 25 23 22 19 18 16 14 11 13 12 11 9 9 7 6 7 8 7 9 10
14 21 26 29 30 27 27 26 27 25 25 14 11 18 16 30 30 28 28 26 23 21 18 17 14 13 11 11 11 11 9 8 7 6 7 8 10 11
20 19 20 18 26 26 26 28 26 25 27 21 18 18 23 28 29 27 25 26 25 20 18 17 13 12 11 13 13 12 10 7 7 6 7 8 10 10
21 21 21 20 21 20 22 26 26 24 22 21 12 10 16 19 30 28 22 28 25 24 21 19 17 17 16 16 18 13 11 9 9 7 7 8 10 9
24 24 24 23 22 22 23 24 24 26 21 20 19 19 24 23 25 27 21 13 6 24 22 21 21 21 18 19 18 15 12 10 8 5 6 8 7 5
23 25 26 24 25 24 24 24 24 26 30 33 25 24 23 33 37 30 28 24 13 15 29 20 23 22 21 20 18 16 14 11 8 6 5 6 5 3
24 24 25 26 25 24 25 25 25 26 28 31 31 30 32 37 44 36 34 29 18 15 23 9 15 19 19 19 18 17 15 12 8 5 5 8 4 2
23 24 26 26 25 24 23 25 27 26 25 25 26 30 29 27 33 33 29 23 7 11 25 12 12 13 15 18 19 17 15 12 10 8 9 6 6 5
21 23 23 25 25 24 23 23 21 25 24 22 21 22 23 26 28 33 35 25 9 6 20 18 18 13 5 14 19 19 16 13 12 11 8 7 6 5
20 20 22 23 24 26 27 25 26 24 23 24 24 24 24 27 26 30 30 34 26 8 17 26 16 18 7 6 14 20 19 17 15 13 10 8 6 5
20 22 24 25 26 25 27 28 26 25 21 23 22 24 27 28 28 29 24 29 24 22 19 31 12 19 13 8 7 19 20 18 19 18 13 10 8 6
20 21 25 28 27 26 24 25 27 25 23 23 22 24 28 29 29 24 23 22 20 18 20 24 20 21 20 11 11 16 21 21 22 20 16 13 10 9
23 24 24 25 25 24 25 23 23 27 28 24 24 23 26 22 25 29 25 24 21 16 21 21 20 17 21 13 12 20 18 12 27 23 18 14 13 11
25 23 23 21 22 19 21 19 21 23 23 23 23 24 23 25 27 29 25 26 15 18 19 18 20 18 14 16 11 17 23 14 23 24 20 18 15 12
21 17 18 18 15 17 19 20 19 20 25 24 21 23 24 25 22 25 28 24 19 19 17 23 23 18 11 11 14 18 21 16 18 24 20 16 13 14
16 18 16 17 16 17 19 20 18 18 22 24 24 24 22 22 23 22 21 22 19 21 21 25 26 20 3 3 11 15 21 20 21 23 19 13 10 13
17 18 17 16 17 17 18 20 20 19 19 21 21 23 25 25 22 23 22 18 18 16 21 26 27 27 12 8 8 16 19 22 25 23 19 13 9 12
17 19 19 18 20 20 18 21 21 19 19 21 21 22 22 24 23 24 26 26 22 18 16 19 28 26 15 12 7 7 21 14 19 23 21 17 12 9
18 19 20 18 20 20 20 19 20 18 16 20 20 21 24 25 22 23 25 25 23 22 17 20 22 21 20 14 7 12 15 17 15 12 11 9 8 9
19 22 20 22 21 20 20 18 17 18 18 19 21 21 22 21 22 24 24 24 24 23 21 20 22 23 21 14 12 18 16 21 19 16 15 12 8 8

GFSNE_925_spd_105.txt.gz
Wind_Speed
29 29 31 30 30 33 29 28 18 9 9 12 16 23 26 32 37 37 37 33 28 24 22 25 27 27 23 21 17 17 16 13 14 12 8 8 8 7
31 31 30 28 27 26 25 23 20 17 8 17 20 26 25 32 36 39 40 33 31 25 24 29 26 22 22 21 20 19 15 15 14 11 10 9 9 6
21 18 26 26 25 23 24 25 24 24 13 22 21 28 28 29 34 39 38 35 28 25 28 28 23 22 24 23 21 19 16 16 13 11 9 10 9 8
19 16 21 21 26 30 29 28 26 25 27 25 22 22 26 30 35 39 35 32 29 28 27 25 24 23 22 22 22 21 17 14 13 12 10 10 9 10
20 19 20 20 17 22 26 24 24 27 31 27 15 19 19 24 28 32 32 29 27 27 26 25 24 21 21 20 20 19 17 14 13 11 10 9 9 11
18 18 19 17 17 21 21 24 27 25 24 22 17 16 19 24 26 28 26 31 31 29 28 26 23 23 20 18 18 18 17 14 12 11 10 9 11 12
17 16 18 19 19 18 19 22 17 19 20 20 11 9 15 14 26 26 23 24 28 33 30 26 24 22 20 18 20 21 17 14 13 11 11 9 11 11
20 21 19 23 21 21 21 20 20 21 15 18 18 17 21 24 25 25 20 13 4 29 30 27 26 26 25 23 24 23 19 17 14 13 11 8 9 7
20 21 23 21 25 25 25 25 24 24 23 21 19 23 22 32 36 30 31 31 23 27 35 20 29 28 26 26 24 23 21 18 16 14 9 7 8 7
21 23 22 23 23 24 25 27 27 28 27 25 27 26 34 34 40 44 43 31 22 27 33 10 27 25 26 27 25 25 22 20 17 13 9 8 9 7
20 20 20 21 22 24 25 25 24 26 30 28 27 26 33 34 36 32 27 26 8 14 33 20 18 22 25 28 28 24 22 20 17 13 11 10 10 10
19 20 19 19 21 23 25 23 22 23 26 31 30 26 26 33 37 39 39 30 13 4 25 20 20 16 6 21 27 26 22 19 17 14 13 11 10 12
19 19 19 23 25 27 28 28 24 27 29 28 29 30 28 29 35 38 41 38 28 7 31 30 21 21 7 6 18 28 26 22 18 16 13 11 11 10
19 20 23 26 30 31 29 29 30 30 26 27 25 25 26 29 34 37 37 40 41 28 33 43 19 30 15 8 8 25 26 25 23 22 19 15 10 10
19 23 27 28 29 29 27 29 28 28 24 22 21 22 28 29 32 32 35 31 29 24 27 41 27 36 32 15 11 17 17 24 26 26 22 19 15 14
21 23 22 26 28 28 28 26 20 23 23 21 22 25 25 24 24 29 21 30 24 22 29 32 28 26 24 16 20 20 23 15 30 28 24 20 17 15
24 19 20 19 23 23 21 21 22 23 21 20 22 23 22 24 23 27 23 20 15 20 18 20 22 24 23 23 13 21 25 18 25 29 26 20 19 17
21 14 17 19 20 20 21 21 22 22 22 20 20 20 20 20 19 24 25 21 16 19 20 25 27 21 16 10 10 21 19 19 18 28 23 16 14 19
12 17 18 19 19 19 18 21 22 24 27 22 20 21 21 20 20 20 19 18 15 18 21 30 24 21 8 5 8 16 24 21 21 21 21 16 11 18
14 17 19 19 19 18 17 20 22 23 23 20 19 19 20 19 16 18 21 21 19 19 17 19 23 21 15 9 8 13 19 25 23 21 17 15 9 13
15 18 20 20 20 18 19 21 24 21 21 21 16 17 19 18 16 17 18 21 22 18 19 20 22 22 14 17 8 9 17 19 24 29 24 14 9 8
18 18 20 20 21 20 23 20 22 21 19 19 17 16 18 19 16 17 19 20 19 19 16 22 24 21 17 11 8 15 14 17 19 18 18 14 10 8
18 19 20 20 20 23 23 19 20 21 20 19 18 16 16 16 17 19 18 18 18 21 23 20 21 19 13 11 12 17 16 19 17 18 16 10 6 5

GFSNE_925_spd_108.txt.gz
Wind_Speed
32 34 33 37 36 36 32 25 14 9 12 20 16 21 23 26 23 23 24 28 39 39 37 35 33 32 31 28 31 27 22 21 19 18 16 14 12 11
16 16 24 29 30 28 28 28 28 26 14 26 20 21 21 24 25 26 35 35 40 43 42 38 37 36 32 32 33 27 23 20 18 17 17 14 12 11
20 21 19 19 19 29 29 30 30 27 11 20 22 21 26 29 32 30 37 42 43 45 43 40 35 32 32 34 30 25 23 21 19 17 16 14 12 12
20 21 22 23 20 19 21 29 27 24 16 11 19 27 29 31 33 35 38 42 39 41 43 40 34 32 34 29 26 25 24 21 19 18 17 15 15 14
15 16 17 19 19 20 22 21 19 28 29 31 28 23 25 28 26 26 30 34 37 40 40 34 34 34 28 27 26 25 23 21 21 19 16 15 15 16
15 15 15 15 17 19 20 19 19 21 16 20 18 18 20 21 22 21 20 28 31 32 35 33 32 29 28 26 25 23 23 22 22 19 16 15 16 15
16 15 15 16 18 17 18 19 19 18 17 16 9 9 10 9 19 17 19 22 26 32 32 32 32 30 27 26 24 24 22 23 21 18 15 15 15 15
18 17 17 17 16 20 19 20 19 18 20 15 14 12 18 20 20 21 18 11 3 31 31 28 32 30 30 27 27 24 22 22 21 17 17 16 16 14
18 19 19 18 19 18 20 20 20 20 19 22 21 19 19 21 24 23 26 27 24 26 36 23 37 32 32 30 28 25 23 23 20 18 17 16 14 12
18 19 19 20 19 20 22 23 21 21 21 21 22 23 25 24 31 33 37 41 23 26 37 14 27 25 34 34 30 26 25 24 22 20 18 16 14 12
16 18 19 19 19 23 24 23 23 23 23 24 26 28 29 30 29 30 23 18 5 12 37 25 20 20 25 32 31 28 27 26 24 22 19 18 16 13
17 16 16 17 20 23 25 25 26 27 27 28 29 29 26 26 30 34 30 25 17 5 23 27 21 23 6 21 31 30 27 27 26 23 20 19 16 12
20 20 19 20 24 24 26 26 26 28 31 31 29 28 27 26 28 30 36 37 26 16 27 37 20 22 8 8 19 34 32 29 25 22 21 20 16 14
20 20 21 24 28 27 28 28 30 30 27 28 27 27 25 24 27 30 36 40 37 41 34 52 24 29 15 8 8 24 32 27 27 24 24 20 17 16
20 21 25 26 24 26 26 28 28 24 25 23 21 27 26 27 29 28 34 33 36 34 30 47 40 38 33 16 13 19 26 28 32 26 26 25 20 18
19 22 24 23 23 23 26 23 21 21 22 24 23 28 28 27 26 27 26 26 22 18 26 36 33 40 24 21 26 24 27 16 32 28 27 24 17 16
26 25 23 20 19 21 21 21 21 22 21 23 23 26 25 22 23 25 22 19 15 13 18 25 21 24 24 29 15 27 29 20 30 27 26 22 19 17
24 21 17 17 19 19 20 21 20 21 23 22 25 26 23 20 20 20 21 18 18 19 17 17 27 18 14 10 15 24 22 20 25 29 24 21 18 18
21 18 17 18 19 20 20 19 19 21 25 24 23 25 24 20 17 17 16 15 11 15 17 26 22 19 7 5 5 21 25 22 24 25 24 18 16 22
17 17 17 19 20 21 21 20 19 21 23 24 22 25 22 19 13 13 15 14 13 13 14 19 22 21 12 8 6 8 17 25 26 25 23 16 14 17
16 16 19 21 21 21 21 20 19 21 23 24 21 23 23 16 12 13 12 13 14 14 14 18 19 19 22 23 10 9 16 21 22 27 26 19 14 11
20 19 19 20 21 22 22 20 21 20 21 21 21 23 23 18 14 13 12 13 14 14 13 17 25 23 18 10 13 17 14 17 17 18 22 16 13 7
20 20 21 22 22 22 21 21 20 19 20 20 21 21 22 16 15 13 13 15 14 15 20 20 22 21 14 17 20 20 13 19 18 19 13 7 8 7

GFSNE_925_spd_111.txt.gz
Wind_Speed
14 16 15 18 29 29 29 26 20 11 11 27 26 30 27 28 30 30 25 26 25 27 30 30 30 33 38 38 35 33 31 29 26 26 21 18 16 15
17 19 17 18 20 18 22 33 32 25 12 15 22 23 27 27 30 27 25 24 24 27 29 31 33 36 42 42 39 36 34 32 29 25 19 17 16 13
18 19 19 19 21 21 22 23 19 23 9 20 23 26 30 28 28 26 27 28 29 31 33 34 37 39 44 44 41 35 37 32 30 22 19 17 14 13
16 17 18 19 18 19 23 22 21 26 21 15 22 21 25 29 30 30 33 34 34 37 40 41 40 41 46 46 41 36 36 35 25 21 20 18 17 15
15 15 16 16 15 18 20 20 22 21 21 17 16 14 22 27 28 32 36 36 39 43 44 39 37 38 43 43 41 34 38 29 24 23 22 21 18 17
14 14 14 14 17 18 17 17 18 20 19 17 16 14 13 19 21 19 24 32 34 35 34 34 32 40 41 33 30 35 30 24 24 25 23 21 19 18
16 14 15 17 18 14 17 18 18 18 18 16 13 10 6 6 10 16 20 20 24 25 24 27 33 34 29 33 37 33 27 26 26 25 24 22 20 18
17 17 17 17 15 17 16 15 16 18 18 16 16 13 14 14 17 17 14 7 2 22 27 26 33 32 36 37 36 33 29 27 26 25 24 22 20 18
17 17 18 16 18 18 18 18 19 16 16 19 19 18 18 17 20 19 19 16 14 16 30 19 31 28 34 34 36 34 32 29 27 25 24 21 18 18
17 16 16 17 17 16 20 20 20 20 19 21 22 24 24 26 28 27 22 28 22 18 28 12 27 24 33 36 37 37 33 31 29 26 25 22 19 16
16 14 14 15 16 19 22 22 23 22 22 23 25 26 27 27 27 28 22 17 7 11 28 15 15 20 25 33 36 38 35 33 31 28 26 24 20 18
15 16 14 13 13 16 19 20 21 23 28 30 30 28 27 26 25 26 24 20 17 5 22 21 18 18 4 22 33 37 36 34 32 30 27 23 21 20
18 17 16 15 18 21 22 21 23 26 26 25 28 31 27 23 22 24 26 27 23 22 18 35 22 20 8 7 25 36 40 36 35 31 28 24 24 20
19 18 18 20 23 24 23 22 24 27 24 23 21 22 25 22 22 26 28 32 31 35 27 35 21 30 20 8 6 30 32 37 38 36 32 26 22 20
21 22 23 24 26 27 24 23 26 22 20 21 22 23 22 27 27 29 31 35 37 34 35 36 39 33 31 18 11 19 27 31 38 37 34 33 30 25
24 22 23 26 25 23 20 19 20 20 21 21 22 22 25 25 25 26 26 26 25 25 29 31 40 36 27 25 27 21 31 18 36 36 34 31 28 27
28 23 20 20 18 16 16 17 19 21 20 20 21 25 24 24 27 26 25 25 21 19 15 24 31 35 26 23 14 27 30 21 36 34 33 27 26 26
27 24 22 20 17 16 16 19 20 21 20 20 21 23 24 23 25 25 24 22 20 19 16 20 23 19 11 7 19 24 25 24 33 35 31 26 23 26
22 21 20 17 15 16 17 19 22 22 23 20 21 23 25 23 25 23 21 19 19 19 19 22 24 18 9 8 7 26 24 29 33 30 27 25 22 28
17 16 16 16 14 17 19 20 21 23 19 22 24 22 24 23 24 22 19 17 16 15 12 17 20 23 14 11 6 9 27 32 29 29 26 20 20 27
19 19 19 19 19 19 20 20 21 22 23 23 23 23 23 22 23 23 19 18 16 11 9 14 19 19 20 24 13 11 20 26 31 30 28 27 19 21
21 19 19 20 21 21 21 21 21 22 22 21 22 22 23 20 22 24 17 13 12 10 8 13 18 25 17 8 11 17 18 22 24 26 26 20 19 8
19 20 22 23 21 20 20 21 22 24 23 21 22 22 21 21 23 24 18 13 12 9 14 13 16 12 13 17 24 19 20 24 28 25 16 12 15 9

GFSNE_925_spd_117.txt.gz
Wind_Speed
13 12 12 11 13 14 12 15 7 3 3 5 7 12 19 29 34 36 41 42 42 40 36 35 39 40 36 37 38 38 35 33 33 30 23 28 37 30
13 13 13 13 14 12 16 14 8 7 4 10 13 24 24 22 23 36 42 42 41 45 45 39 40 36 34 39 42 39 33 35 35 30 27 25 42 37
15 11 10 11 10 12 15 14 14 13 5 14 18 24 24 28 28 22 29 39 41 42 43 42 45 40 37 38 42 39 35 34 30 31 28 29 39 35
13 13 13 9 9 13 12 10 10 13 13 13 17 18 23 23 26 24 18 28 34 33 36 35 34 34 35 35 32 34 33 32 31 32 32 35 39 38
12 14 12 12 15 16 13 13 10 13 13 14 15 19 21 21 25 21 20 20 17 19 23 31 36 32 32 30 32 31 35 36 35 35 35 43 44 41
13 12 13 14 13 12 12 12 10 11 12 14 14 15 18 21 19 20 22 21 26 24 19 19 19 26 28 31 36 40 42 42 40 36 40 46 48 42
11 12 13 14 9 10 10 10 14 16 14 12 12 12 13 16 17 19 20 25 27 18 19 18 17 18 22 26 32 36 38 38 39 38 44 48 50 40
16 15 14 12 8 7 5 8 11 13 14 12 10 10 12 16 18 20 19 18 5 10 24 23 22 25 23 22 24 27 31 34 38 42 50 54 44 34
17 19 20 18 15 9 6 10 13 10 11 13 14 15 17 20 20 19 18 18 20 24 26 25 24 26 28 26 26 25 24 25 32 43 48 43 34 31
17 18 19 19 17 11 11 14 16 18 16 14 15 18 19 23 23 22 23 24 23 24 23 15 21 24 28 28 25 26 25 26 36 43 36 34 32 29
17 16 17 20 18 16 14 14 18 22 21 17 15 16 19 19 19 20 20 17 13 18 22 20 16 23 25 29 26 24 25 27 31 33 35 33 30 26
21 18 16 17 17 16 17 17 18 22 23 20 17 24 21 22 18 16 19 14 15 10 7 12 15 13 7 14 23 26 28 32 35 38 38 33 30 30
11 14 16 17 19 20 21 21 19 20 22 16 18 21 22 23 22 21 19 20 18 18 19 22 18 21 13 12 17 18 25 30 34 38 38 35 35 35
19 20 23 21 23 22 21 18 21 22 19 13 16 20 23 24 23 23 26 27 26 26 27 25 17 19 20 18 10 19 25 29 32 35 37 37 36 34
20 22 25 24 23 22 22 21 22 21 20 16 17 19 23 24 24 23 27 27 26 23 21 25 29 26 25 23 20 19 19 23 32 34 36 38 37 37
22 24 22 24 24 24 24 24 22 20 16 15 18 21 23 23 23 22 23 26 23 26 24 21 26 31 28 27 26 25 26 16 25 32 36 36 37 40
27 22 21 19 20 21 22 22 22 19 16 16 19 21 18 20 19 20 23 22 21 21 23 25 24 30 33 31 25 26 27 26 25 29 31 27 32 39
23 17 17 15 18 19 18 17 15 16 19 21 19 18 20 20 21 21 20 21 21 21 21 26 23 22 22 26 35 27 25 28 26 31 30 26 25 31
19 19 18 18 18 17 18 18 18 19 21 20 21 23 22 21 20 20 19 20 21 22 23 25 23 19 10 11 18 22 28 24 25 25 31 28 24 32
17 18 19 19 20 21 20 20 20 22 22 23 24 25 20 20 20 20 20 21 21 21 23 24 23 21 14 15 12 19 27 30 29 26 24 20 18 23
19 19 20 21 21 20 22 24 25 24 23 21 20 23 24 23 22 21 22 26 27 23 21 22 24 25 29 24 12 12 22 36 35 29 25 24 19 18
21 22 23 24 24 25 26 25 23 22 22 23 23 23 23 22 22 21 22 22 23 24 27 31 28 24 20 17 11 15 13 24 31 26 35 33 24 8
23 24 26 26 27 27 26 25 25 24 23 24 24 23 23 20 21 23 24 25 24 25 25 27 22 20 18 17 17 10 14 18 20 19 21 24 25 11

GFSNE_925_spd_120.txt.gz
Wind_Speed
15 13 12 12 10 8 8 7 2 1 2 3 7 13 26 23 20 22 23 28 34 37 38 37 41 39 40 40 40 42 45 44 41 39 33 32 29 36
11 9 10 12 9 11 8 5 3 2 3 7 15 23 27 29 27 25 25 24 25 33 34 35 36 41 40 36 35 36 39 44 42 36 33 33 30 34
12 12 13 10 8 8 6 4 6 3 3 7 14 21 23 27 27 27 26 23 22 21 25 32 35 40 44 47 39 37 36 40 42 37 34 34 33 33
12 13 12 9 10 9 6 4 5 6 5 9 12 14 22 23 23 26 24 22 20 20 19 19 20 35 40 41 44 45 39 35 38 36 32 34 34 32
11 10 10 10 9 8 7 9 7 6 9 8 11 13 17 17 24 18 24 23 23 23 22 18 16 15 17 27 36 36 31 31 28 33 31 29 31 34
12 10 11 12 10 9 8 7 8 12 13 12 13 13 13 15 18 20 25 25 29 26 15 15 12 15 13 14 19 19 20 24 26 29 30 31 33 35
13 12 11 9 6 7 4 6 10 11 12 9 10 11 12 16 16 20 20 24 28 10 21 22 24 24 20 18 17 14 18 24 29 33 37 40 39 39
12 13 13 11 10 10 5 5 8 10 12 11 10 12 14 15 16 17 17 19 5 11 31 32 28 30 26 27 23 19 19 20 23 28 34 39 42 45
12 13 13 13 13 13 8 7 8 8 9 11 14 16 17 20 22 19 18 17 17 27 25 22 26 27 24 27 27 25 24 21 22 26 29 32 37 46
14 15 15 15 15 13 14 13 11 12 15 14 14 17 17 19 20 20 21 22 20 20 20 11 22 27 29 29 29 25 24 23 21 23 25 28 33 46
16 16 14 16 17 15 15 15 16 18 17 16 15 15 14 16 15 18 19 15 12 17 25 16 11 22 25 23 19 20 22 22 21 22 16 23 37 45
16 12 14 15 18 18 18 20 22 25 22 19 19 19 18 19 16 14 15 13 14 9 7 19 21 17 8 13 15 23 22 19 20 24 22 27 36 36
15 18 19 18 19 19 20 21 18 21 18 18 18 20 20 20 20 19 17 16 18 15 27 19 14 18 13 16 24 31 26 22 19 25 29 33 37 39
17 19 21 20 21 21 21 20 22 23 23 19 18 17 19 20 22 21 22 21 21 24 27 25 15 18 20 19 13 23 28 32 25 23 27 31 38 39
20 21 22 22 21 21 21 22 22 23 24 21 20 20 19 21 22 23 24 22 24 26 23 23 26 25 23 22 18 22 23 21 21 21 25 31 34 34
22 22 21 22 22 21 22 22 20 19 18 20 17 15 16 20 22 23 23 23 23 25 21 22 24 25 24 23 22 21 25 16 17 19 24 31 34 38
23 18 16 17 19 18 18 19 19 18 15 15 16 17 18 17 18 21 20 23 17 20 28 22 22 24 28 29 23 22 23 26 24 25 24 24 30 35
18 15 17 15 16 16 16 16 18 18 19 20 20 21 21 21 21 19 19 21 19 19 21 24 21 22 23 24 27 26 23 25 26 26 29 26 22 31
15 15 15 16 16 17 17 18 19 19 22 22 24 26 26 26 20 19 20 19 17 18 20 21 21 16 10 11 23 24 24 25 27 28 28 27 21 26
14 15 17 18 19 19 19 19 20 20 21 23 25 25 23 20 20 20 19 18 18 20 22 21 19 21 13 14 13 25 23 28 24 25 25 23 24 22
17 17 18 20 21 22 23 24 25 24 22 22 21 24 25 24 21 19 19 22 23 19 18 21 25 26 29 29 16 23 25 28 31 25 24 23 16 14
19 20 21 22 23 25 26 26 25 24 23 23 25 26 25 23 21 20 19 18 20 21 22 26 28 27 25 24 12 19 23 21 24 29 33 31 15 6
22 23 25 26 27 27 27 26 26 26 25 24 24 24 24 21 21 21 21 21 20 22 21 26 25 25 26 22 22 18 19 19 19 19 24 33 29 25

GFSNE_925_spd_126.txt.gz
Wind_Speed
18 16 15 16 17 17 16 16 5 3 2 10 4 14 17 16 16 15 15 12 13 13 12 14 15 18 21 24 26 27 29 30 33 35 39 40 36 35
13 13 14 15 16 14 11 14 11 8 3 11 8 18 21 18 18 18 15 14 13 15 17 15 16 17 17 19 22 25 28 28 29 31 32 38 37 36
12 13 14 14 14 13 13 10 7 9 4 7 16 21 20 23 21 20 18 16 18 17 18 16 13 13 15 14 18 21 24 24 22 24 30 35 37 39
15 13 15 15 13 13 11 8 9 9 6 5 13 18 18 17 21 20 20 19 20 19 17 12 13 16 15 15 14 14 15 20 27 29 30 31 32 35
10 11 13 13 13 12 10 10 11 10 9 7 8 13 17 18 22 22 23 22 23 20 10 13 19 21 19 19 19 15 15 13 13 20 24 32 39 35
9 9 9 8 8 9 7 8 7 8 8 8 9 13 13 19 18 21 24 26 28 13 16 25 22 21 20 19 17 18 18 17 14 15 15 20 28 34
8 9 7 7 6 7 8 7 6 7 8 8 9 6 13 18 17 18 18 22 21 9 25 31 30 26 25 22 18 19 22 22 20 16 18 17 15 25
10 9 9 9 10 11 11 9 8 9 9 5 5 7 11 14 12 14 16 12 4 7 23 28 24 26 24 22 24 25 23 20 23 20 21 23 20 20
11 12 12 10 9 10 10 11 10 11 12 13 14 16 14 16 15 15 14 13 12 24 20 14 19 21 27 33 27 18 16 13 17 15 18 22 23 20
12 12 11 12 13 14 16 16 15 14 12 14 17 19 19 17 15 13 13 14 17 21 19 3 18 20 33 30 17 10 18 21 23 21 19 20 22 19
12 11 12 16 16 15 16 18 18 18 16 16 15 15 16 16 14 14 15 10 5 11 14 5 13 22 22 23 15 14 26 31 23 24 23 24 23 19
12 12 15 16 17 16 17 17 18 21 21 19 16 18 17 16 15 14 12 7 6 6 8 9 19 13 9 13 19 31 33 28 24 26 23 23 22 19
15 17 17 17 18 18 18 18 20 21 20 20 17 19 22 22 23 20 14 11 10 10 20 15 13 17 8 16 20 27 26 30 33 28 26 22 22 18
16 19 19 19 19 19 18 18 21 21 20 23 23 22 21 20 19 15 12 14 15 17 20 20 11 17 15 19 15 22 27 30 23 32 26 17 18 17
17 18 20 19 18 19 22 19 19 18 16 16 15 18 18 17 16 16 17 20 21 23 24 24 20 21 19 18 18 25 24 20 31 13 20 30 28 22
18 19 16 17 20 20 18 17 14 14 14 14 15 18 19 21 21 21 22 23 22 25 22 21 18 16 22 21 20 25 24 14 22 28 27 28 25 21
18 16 19 23 22 21 19 18 16 17 17 18 18 18 17 17 18 18 19 20 18 20 20 16 18 20 22 25 21 24 27 23 26 24 21 23 24 22
15 15 17 17 16 17 17 17 17 17 18 18 19 20 20 20 20 20 18 16 16 17 20 20 20 19 18 21 24 27 25 25 24 21 17 18 22 21
15 16 15 16 17 18 18 18 20 20 20 21 23 26 27 24 21 20 18 16 16 18 19 20 19 18 9 11 18 20 26 26 20 19 20 18 21 24
14 14 17 18 18 19 21 21 21 22 21 21 22 24 25 25 21 19 17 17 17 18 20 21 22 20 11 13 13 24 24 28 24 20 19 21 25 26
14 15 18 20 22 23 23 24 23 24 23 25 26 25 26 23 21 20 21 22 22 18 15 17 22 20 22 23 16 21 24 25 28 31 20 17 16 18
17 17 20 22 23 24 25 25 25 25 25 25 26 25 26 24 22 21 20 19 18 19 22 25 25 22 20 19 16 23 25 25 27 30 29 29 17 4
18 18 21 24 25 25 26 26 25 26 26 27 27 27 25 23 24 24 22 21 21 20 21 21 20 19 20 21 24 24 26 26 25 24 27 24 27 30

GFSNE_925_spd_129.txt.gz
Wind_Speed
16 15 14 14 12 9 8 7 4 3 5 10 7 18 18 17 21 16 14 10 8 10 9 10 9 8 8 11 14 17 21 25 27 28 29 30 35 36
12 13 13 14 12 11 11 9 8 3 2 6 8 17 18 17 21 21 17 13 12 11 11 10 8 9 10 10 11 13 15 19 23 26 28 30 33 36
15 15 15 14 12 11 11 10 11 11 5 5 9 14 14 15 15 15 16 15 15 13 13 10 10 11 13 11 11 11 12 13 18 22 24 23 28 31
13 13 15 13 13 12 10 10 8 7 3 5 7 10 8 16 17 16 16 16 16 13 10 12 14 13 14 13 13 13 14 13 12 15 21 26 27 26
12 13 13 12 12 12 10 9 9 8 7 4 5 7 6 12 15 15 16 19 18 9 9 16 17 15 14 14 13 13 14 15 15 13 15 20 25 30
9 10 10 9 10 11 10 10 8 8 9 10 9 7 6 13 14 14 18 19 19 7 13 20 20 17 15 14 11 11 16 17 16 18 16 14 17 23
8 8 9 9 9 9 9 10 7 6 6 6 9 10 12 14 13 12 14 17 17 8 21 19 21 17 15 17 18 19 17 17 14 14 15 17 15 19
10 10 10 9 10 10 10 10 8 9 9 6 9 10 11 11 8 9 11 12 5 4 16 20 16 13 14 18 22 18 12 13 12 14 15 14 16 17
12 12 11 9 9 11 12 13 14 13 11 11 12 13 13 13 13 14 10 8 12 16 14 15 12 15 19 24 22 11 9 12 16 21 19 19 18 21
12 11 11 11 13 13 13 12 13 14 14 14 13 14 14 17 19 18 14 11 13 15 11 10 12 16 25 26 17 10 10 21 21 19 20 22 21 21
11 11 10 12 14 14 14 14 14 14 16 16 15 15 15 15 14 14 11 11 13 12 11 6 10 20 17 19 13 8 28 21 22 19 23 22 21 22
11 11 12 13 14 14 14 14 15 16 16 15 13 13 16 18 17 15 15 14 13 9 6 6 14 11 9 9 11 30 25 26 22 23 22 21 21 19
11 12 13 14 14 15 15 14 15 19 21 15 15 16 16 16 13 12 12 14 14 13 15 13 10 14 9 16 18 24 23 25 26 28 20 22 15 17
12 14 17 16 15 15 14 16 21 20 15 16 16 15 13 12 13 14 13 12 15 17 18 16 10 15 17 17 17 20 26 29 21 21 25 15 24 25
13 15 18 16 15 14 18 15 15 13 13 13 15 15 14 14 18 18 18 18 18 21 21 19 17 19 17 17 19 27 22 21 27 18 14 25 24 24
14 17 16 15 15 16 14 12 9 10 11 14 17 18 17 15 15 14 15 15 17 18 14 16 16 15 17 19 20 26 25 14 21 24 23 25 22 19
14 12 12 12 14 13 11 10 10 11 12 12 14 15 16 15 16 14 16 16 17 18 17 13 13 15 19 22 22 23 28 23 22 24 21 23 21 20
12 7 12 13 13 13 12 13 12 13 13 14 15 16 18 18 18 18 16 16 16 17 18 16 15 18 18 18 21 25 24 22 21 20 19 19 23 20
7 11 12 11 13 13 13 13 16 16 17 18 19 20 19 19 18 17 17 17 19 19 19 18 17 16 9 10 15 18 24 20 16 19 20 21 23 25
9 11 11 12 14 14 15 16 17 18 18 18 19 20 20 20 18 18 17 18 18 18 19 19 18 18 12 12 12 21 23 26 21 21 21 21 25 27
10 10 12 14 15 15 17 18 18 20 19 21 22 21 21 20 20 20 20 21 21 19 17 19 19 18 21 19 12 20 24 24 25 25 20 20 22 21
11 11 14 15 16 17 18 19 21 21 21 21 22 22 23 21 22 21 20 20 19 19 21 22 21 18 16 17 15 22 25 26 23 22 24 27 24 6
12 13 15 16 16 18 19 21 21 23 23 25 24 25 24 23 23 23 23 21 21 20 19 19 17 16 18 18 21 20 23 26 25 22 19 19 25 31

GFSNE_925_spd_132.txt.gz
Wind_Speed
10 11 12 13 11 10 10 10 9 5 5 9 8 14 13 14 19 16 15 14 11 15 20 16 17 9 8 5 7 8 11 16 20 24 25 27 29 31
9 11 11 11 10 9 10 9 9 9 5 9 10 12 13 12 16 14 13 14 17 17 15 12 15 13 12 8 6 6 9 12 14 17 21 19 24 29
9 9 10 10 9 9 8 8 9 10 8 10 10 12 11 14 13 12 13 11 8 8 5 9 12 13 12 11 8 8 10 11 11 13 16 20 21 24
7 8 9 10 9 9 8 8 7 6 7 8 10 13 12 13 14 12 9 9 8 7 6 10 11 13 11 11 9 7 7 11 12 13 13 17 20 24
6 6 7 9 9 9 9 9 8 7 7 8 9 9 10 12 13 10 9 9 8 4 6 11 13 11 11 11 11 9 11 11 12 14 14 15 18 21
5 6 6 7 8 10 10 10 10 10 9 9 9 9 7 8 9 12 14 13 14 6 8 12 14 13 10 11 11 14 15 11 12 8 9 9 13 17
7 6 6 8 8 8 9 10 11 10 11 13 13 14 12 14 14 14 14 16 15 6 14 15 17 15 11 12 13 17 16 10 10 11 14 15 13 17
9 10 8 8 7 8 8 8 8 10 12 13 12 12 15 14 14 14 15 15 7 7 19 20 15 15 14 13 18 18 13 10 14 14 17 18 18 18
9 10 10 8 8 9 11 11 11 11 11 13 15 15 17 16 16 17 16 17 15 17 18 18 16 16 16 17 20 18 9 12 19 19 20 18 21 22
10 9 10 10 8 10 12 13 13 13 12 11 13 15 15 15 15 15 15 17 16 17 14 14 17 18 19 21 18 14 10 18 22 22 19 20 22 23
11 10 10 11 10 11 12 13 14 15 14 13 15 16 16 15 14 15 15 16 15 16 17 16 15 20 21 20 14 8 19 20 21 22 22 22 22 22
10 10 10 11 13 12 12 13 15 16 17 17 17 16 15 16 16 15 16 15 15 12 7 5 13 15 7 11 8 24 20 23 21 21 23 22 18 19
11 11 11 13 14 14 14 14 13 17 21 20 17 16 15 15 13 12 12 13 15 16 18 16 9 15 14 18 20 22 24 20 23 24 18 18 19 14
14 12 13 14 16 16 15 13 17 17 16 15 15 15 13 12 12 11 12 14 15 18 18 17 14 16 18 20 19 21 21 23 22 21 23 16 17 20
14 14 16 17 16 16 14 16 15 12 12 12 13 14 14 14 15 17 16 15 16 18 19 19 21 21 20 21 21 27 25 21 23 17 15 21 21 21
13 14 14 15 16 17 16 11 9 9 10 13 15 15 16 15 15 14 14 15 16 18 17 18 20 20 21 21 20 24 23 15 20 21 21 21 21 19
12 14 13 12 14 14 12 10 10 10 12 13 14 16 16 15 16 15 15 16 16 17 18 16 15 18 20 21 22 25 26 23 22 20 18 21 20 19
13 14 13 14 14 14 12 11 11 12 13 14 15 15 16 16 16 16 16 16 16 17 18 18 17 17 18 22 25 27 24 22 20 19 18 20 22 19
14 13 14 14 14 13 12 12 14 13 14 15 16 16 17 18 18 17 17 17 17 18 19 18 16 15 9 11 17 17 22 21 20 17 19 21 25 22
13 14 14 14 13 13 12 13 14 15 15 16 17 18 19 20 19 19 18 18 18 19 19 18 18 18 12 13 12 22 21 24 23 23 22 22 27 25
12 13 13 14 13 13 13 14 15 16 17 19 20 20 20 19 20 20 20 22 22 20 18 20 20 19 21 20 15 21 24 23 26 27 21 20 23 22
12 13 13 13 13 13 13 13 15 16 17 18 20 21 22 20 21 22 21 21 20 19 21 22 19 18 17 17 15 23 23 23 20 21 25 29 18 6
13 12 13 13 13 13 13 14 16 17 18 20 22 22 22 22 22 23 24 24 23 21 20 20 18 16 19 20 22 22 24 23 20 19 22 24 30 36

GFSNE_925_spd_135.txt.gz
Wind_Speed
8 9 10 9 9 9 8 8 6 5 6 8 9 18 18 19 18 16 17 14 15 16 15 14 11 13 15 17 18 18 18 14 7 10 16 16 15 24
7 9 9 9 9 9 9 8 7 7 4 14 12 13 13 14 17 16 15 15 14 15 13 15 16 12 11 16 19 15 19 14 13 9 6 11 12 17
7 7 8 9 9 9 9 9 8 7 5 10 11 12 12 13 14 14 12 11 12 12 11 14 16 15 15 16 15 13 13 15 14 13 11 11 14 17
7 8 8 8 8 9 10 10 9 9 9 10 11 11 11 12 13 13 13 11 13 11 10 15 15 14 13 9 8 10 13 16 15 16 15 13 13 15
6 6 7 9 9 9 11 10 10 10 10 10 12 12 12 12 14 12 13 13 15 13 10 13 15 16 14 11 10 9 12 17 13 9 8 10 11 10
6 6 6 7 8 9 9 10 10 11 11 12 12 13 14 11 12 15 16 16 17 14 12 16 15 14 12 11 10 14 15 14 10 11 10 13 14 15
7 8 7 9 10 7 8 9 12 12 11 11 10 10 12 13 11 12 13 17 18 10 10 17 19 17 15 10 9 15 17 13 11 13 14 14 16 16
9 9 7 11 8 8 8 9 11 12 13 14 13 11 11 14 13 14 15 14 5 10 17 17 16 17 15 15 14 17 16 11 10 16 17 19 17 18
10 10 10 10 10 9 10 10 10 11 12 13 14 14 15 14 14 16 15 14 12 17 18 18 15 16 17 17 19 20 16 10 13 19 16 18 17 20
12 10 11 12 11 10 12 13 12 13 14 14 15 17 17 17 17 17 15 15 17 17 13 14 16 18 18 20 20 15 11 10 19 18 20 20 20 21
13 11 11 12 12 10 14 14 14 13 13 14 14 17 18 17 16 16 15 15 14 17 17 16 13 17 17 22 10 8 14 19 20 22 18 20 22 21
11 11 12 13 11 12 15 15 14 14 14 16 19 19 17 15 15 15 16 15 14 10 2 3 12 13 6 10 6 20 22 21 24 18 21 21 16 19
11 11 11 11 12 14 15 16 15 16 17 20 20 17 14 15 14 12 11 13 14 17 19 20 14 13 11 18 18 22 25 22 21 24 23 18 20 14
14 13 13 12 13 16 18 17 17 17 17 17 16 15 14 14 14 14 14 16 19 23 23 21 20 17 17 19 19 20 24 25 25 25 23 22 15 19
16 15 13 15 18 18 16 15 16 16 15 14 14 14 15 15 15 17 19 18 19 22 23 23 24 24 21 21 21 26 26 21 27 24 17 22 25 22
14 14 14 14 16 17 17 14 13 12 13 13 14 15 16 17 16 15 16 17 17 20 21 22 23 24 23 23 23 25 22 15 20 25 25 26 24 22
10 12 12 12 13 14 13 13 13 12 13 13 14 15 16 16 16 16 16 17 16 19 21 20 19 21 23 23 22 25 27 25 25 23 21 23 26 23
13 13 13 13 13 13 12 12 12 12 13 14 15 16 17 17 18 18 18 17 18 20 22 20 19 18 19 21 25 27 27 27 25 23 20 19 24 26
16 15 13 13 13 13 13 13 13 13 13 15 16 17 19 20 19 18 18 19 19 21 22 21 18 17 9 10 21 20 24 22 22 22 23 20 21 29
16 15 13 14 14 14 13 13 14 13 14 15 17 18 19 20 20 19 19 19 20 21 21 21 21 21 14 14 11 21 22 25 22 24 25 26 25 29
14 14 13 15 15 14 13 14 14 15 16 18 19 19 19 20 21 21 21 24 25 21 19 22 26 25 27 23 15 22 25 24 27 28 22 21 21 24
15 14 14 15 15 14 14 14 14 16 18 18 19 20 21 21 22 23 23 23 22 23 25 27 25 23 22 20 16 22 24 23 22 23 26 29 22 5
16 15 14 15 14 14 14 15 16 18 19 20 20 22 22 23 24 25 26 26 26 25 25 24 22 19 22 22 24 22 24 24 22 21 26 26 28 35